GFSNGP_prec_precacc24_048.txt.gz
Total_Precipitation_Accumulation
0.00 0.00 0.00 0.00 0.00 0.00 0.00 0.00 0.01 0.00 0.00 0.00 0.00 0.00 0.00 0.00 0.00 0.00 0.00 0.00 0.00 0.00 0.00 0.00 0.00 0.01 0.00 0.02 0.07 0.10 0.09 0.15 0.12 0.22 0.17 0.14 0.10 0.12 0.15 0.17 0.24 0.19 0.18 0.09
0.00 0.00 0.00 0.00 0.00 0.00 0.00 0.00 0.00 0.00 0.00 0.00 0.00 0.00 0.00 0.00 0.00 0.00 0.00 0.00 0.00 0.00 0.00 0.00 0.00 0.00 0.00 0.01 0.04 0.04 0.04 0.08 0.06 0.10 0.10 0.10 0.06 0.06 0.09 0.10 0.11 0.13 0.15 0.13
0.01 0.00 0.00 0.00 0.00 0.00 0.00 0.00 0.00 0.00 0.00 0.00 0.00 0.00 0.00 0.00 0.00 0.00 0.00 0.00 0.00 0.00 0.00 0.01 0.00 0.00 0.00 0.01 0.01 0.02 0.05 0.04 0.05 0.06 0.08 0.06 0.09 0.06 0.08 0.11 0.08 0.08 0.11 0.18
0.05 0.01 0.04 0.02 0.00 0.00 0.00 0.00 0.00 0.00 0.00 0.00 0.00 0.00 0.00 0.00 0.00 0.00 0.00 0.00 0.00 0.00 0.00 0.00 0.00 0.00 0.00 0.00 0.00 0.01 0.03 0.04 0.04 0.04 0.05 0.06 0.07 0.08 0.08 0.08 0.10 0.12 0.16 0.18
0.13 0.07 0.04 0.00 0.00 0.00 0.00 0.00 0.00 0.00 0.00 0.00 0.00 0.00 0.00 0.00 0.00 0.00 0.00 0.00 0.00 0.00 0.00 0.00 0.00 0.00 0.00 0.00 0.01 0.01 0.02 0.02 0.03 0.05 0.05 0.05 0.05 0.06 0.08 0.10 0.14 0.13 0.08 0.05
0.15 0.15 0.10 0.01 0.00 0.00 0.00 0.01 0.00 0.00 0.00 0.00 0.00 0.00 0.00 0.00 0.00 0.00 0.00 0.00 0.00 0.00 0.00 0.00 0.00 0.00 0.01 0.00 0.00 0.01 0.01 0.01 0.02 0.02 0.02 0.01 0.03 0.03 0.05 0.05 0.04 0.04 0.05 0.04
0.16 0.17 0.05 0.01 0.01 0.00 0.03 0.02 0.00 0.00 0.00 0.00 0.00 0.00 0.00 0.00 0.00 0.00 0.00 0.00 0.00 0.00 0.00 0.00 0.00 0.00 0.00 0.00 0.00 0.00 0.01 0.01 0.01 0.00 0.00 0.00 0.00 0.01 0.02 0.02 0.02 0.02 0.01 0.00
0.21 0.18 0.05 0.02 0.05 0.08 0.04 0.00 0.00 0.00 0.00 0.00 0.00 0.00 0.00 0.00 0.00 0.00 0.00 0.00 0.00 0.00 0.00 0.00 0.00 0.00 0.00 0.00 0.00 0.01 0.02 0.01 0.00 0.00 0.00 0.00 0.01 0.01 0.02 0.01 0.00 0.00 0.00 0.00
0.10 0.06 0.02 0.02 0.03 0.02 0.01 0.01 0.01 0.01 0.00 0.00 0.00 0.00 0.00 0.00 0.00 0.00 0.00 0.00 0.00 0.00 0.00 0.00 0.00 0.00 0.00 0.01 0.03 0.03 0.02 0.01 0.00 0.00 0.00 0.00 0.00 0.01 0.00 0.00 0.00 0.00 0.00 0.00
0.04 0.02 0.03 0.03 0.02 0.01 0.00 0.01 0.01 0.00 0.00 0.00 0.00 0.00 0.00 0.00 0.00 0.00 0.00 0.00 0.00 0.00 0.00 0.00 0.00 0.00 0.02 0.04 0.03 0.02 0.01 0.00 0.00 0.00 0.00 0.00 0.00 0.00 0.00 0.00 0.00 0.00 0.00 0.00
0.02 0.01 0.02 0.03 0.12 0.09 0.04 0.02 0.02 0.02 0.03 0.02 0.02 0.02 0.01 0.01 0.01 0.00 0.00 0.00 0.00 0.00 0.00 0.00 0.01 0.01 0.01 0.01 0.01 0.00 0.00 0.00 0.00 0.00 0.00 0.00 0.00 0.00 0.00 0.00 0.00 0.00 0.00 0.00
0.03 0.02 0.00 0.00 0.03 0.03 0.08 0.10 0.04 0.04 0.03 0.03 0.02 0.02 0.01 0.02 0.01 0.01 0.00 0.00 0.00 0.00 0.00 0.00 0.00 0.00 0.00 0.00 0.00 0.00 0.00 0.00 0.00 0.00 0.00 0.00 0.00 0.00 0.00 0.00 0.00 0.00 0.00 0.00
0.01 0.01 0.03 0.02 0.03 0.05 0.02 0.05 0.06 0.04 0.02 0.01 0.01 0.01 0.00 0.00 0.00 0.01 0.00 0.00 0.00 0.00 0.00 0.00 0.00 0.00 0.00 0.00 0.00 0.00 0.00 0.00 0.00 0.00 0.00 0.00 0.00 0.00 0.00 0.01 0.02 0.02 0.03 0.02
0.02 0.02 0.05 0.03 0.03 0.02 0.02 0.02 0.01 0.01 0.00 0.00 0.00 0.00 0.00 0.00 0.01 0.01 0.01 0.01 0.01 0.01 0.02 0.02 0.02 0.01 0.00 0.00 0.00 0.00 0.00 0.00 0.00 0.00 0.00 0.01 0.01 0.01 0.02 0.04 0.06 0.07 0.05 0.02
0.02 0.01 0.01 0.02 0.02 0.01 0.01 0.01 0.01 0.00 0.00 0.00 0.00 0.00 0.00 0.00 0.00 0.00 0.00 0.01 0.02 0.04 0.07 0.10 0.11 0.08 0.04 0.03 0.03 0.04 0.06 0.08 0.09 0.09 0.09 0.09 0.10 0.11 0.12 0.14 0.14 0.13 0.13 0.12
0.00 0.00 0.00 0.00 0.00 0.00 0.00 0.00 0.00 0.00 0.00 0.00 0.00 0.00 0.00 0.00 0.00 0.00 0.00 0.01 0.02 0.03 0.03 0.06 0.13 0.19 0.22 0.24 0.29 0.32 0.31 0.28 0.23 0.22 0.25 0.25 0.24 0.21 0.18 0.17 0.16 0.15 0.14 0.13
0.01 0.01 0.00 0.00 0.00 0.00 0.00 0.00 0.00 0.00 0.00 0.00 0.00 0.00 0.00 0.00 0.01 0.03 0.05 0.07 0.12 0.22 0.34 0.40 0.51 0.53 0.51 0.46 0.40 0.39 0.35 0.33 0.31 0.27 0.24 0.22 0.18 0.15 0.13 0.13 0.11 0.09 0.09 0.07
0.13 0.13 0.12 0.09 0.05 0.03 0.03 0.03 0.04 0.05 0.07 0.07 0.06 0.03 0.03 0.06 0.12 0.22 0.34 0.40 0.49 0.64 0.74 0.74 0.65 0.59 0.54 0.48 0.40 0.34 0.29 0.24 0.20 0.16 0.15 0.13 0.10 0.08 0.07 0.06 0.06 0.05 0.04 0.04
0.17 0.15 0.16 0.15 0.13 0.10 0.08 0.07 0.07 0.09 0.14 0.17 0.20 0.31 0.40 0.57 0.67 0.81 0.86 0.80 0.78 0.70 0.78 0.61 0.49 0.37 0.31 0.26 0.19 0.16 0.14 0.12 0.10 0.09 0.08 0.06 0.05 0.04 0.04 0.03 0.04 0.03 0.03 0.03
0.16 0.16 0.14 0.13 0.12 0.11 0.13 0.21 0.24 0.37 0.57 0.58 0.68 0.81 0.90 1.02 0.93 0.83 0.69 0.62 0.59 0.51 0.43 0.34 0.24 0.19 0.15 0.13 0.10 0.08 0.07 0.06 0.05 0.05 0.04 0.03 0.03 0.02 0.02 0.01 0.01 0.01 0.01 0.01
0.35 0.35 0.39 0.42 0.53 0.65 0.75 0.84 0.71 0.81 0.99 0.88 0.72 0.77 0.72 0.74 0.64 0.53 0.40 0.35 0.42 0.31 0.24 0.21 0.16 0.13 0.08 0.06 0.05 0.05 0.03 0.02 0.02 0.01 0.01 0.00 0.01 0.01 0.01 0.01 0.01 0.00 0.01 0.01
0.72 0.69 0.79 0.78 0.64 0.78 0.85 0.79 0.64 0.63 0.62 0.59 0.55 0.51 0.42 0.44 0.39 0.33 0.31 0.26 0.28 0.19 0.13 0.09 0.06 0.04 0.03 0.02 0.01 0.01 0.00 0.00 0.00 0.00 0.01 0.01 0.01 0.01 0.01 0.01 0.01 0.01 0.01 0.01
0.72 0.63 0.59 0.55 0.47 0.50 0.49 0.44 0.44 0.35 0.35 0.35 0.32 0.31 0.25 0.25 0.21 0.14 0.16 0.16 0.09 0.06 0.04 0.02 0.01 0.00 0.00 0.00 0.00 0.00 0.00 0.00 0.00 0.00 0.01 0.01 0.02 0.01 0.01 0.01 0.01 0.01 0.01 0.01
0.41 0.36 0.36 0.35 0.22 0.14 0.18 0.25 0.18 0.16 0.15 0.15 0.14 0.13 0.10 0.07 0.08 0.07 0.05 0.04 0.02 0.01 0.00 0.00 0.00 0.00 0.00 0.00 0.01 0.01 0.01 0.01 0.01 0.02 0.02 0.01 0.01 0.02 0.01 0.01 0.01 0.01 0.01 0.01
0.27 0.26 0.25 0.20 0.14 0.19 0.17 0.15 0.09 0.09 0.08 0.07 0.07 0.05 0.04 0.04 0.04 0.05 0.02 0.01 0.00 0.02 0.02 0.00 0.00 0.00 0.00 0.01 0.01 0.01 0.01 0.02 0.02 0.02 0.02 0.02 0.01 0.02 0.01 0.01 0.02 0.01 0.01 0.01
0.16 0.16 0.16 0.15 0.16 0.16 0.14 0.09 0.11 0.14 0.08 0.07 0.08 0.07 0.06 0.04 0.03 0.03 0.03 0.01 0.01 0.00 0.02 0.02 0.01 0.01 0.01 0.01 0.01 0.01 0.01 0.01 0.02 0.02 0.02 0.01 0.01 0.01 0.02 0.01 0.01 0.01 0.01 0.00
0.10 0.09 0.08 0.07 0.09 0.09 0.08 0.08 0.07 0.07 0.07 0.08 0.09 0.08 0.06 0.04 0.03 0.01 0.02 0.01 0.01 0.01 0.01 0.01 0.02 0.02 0.01 0.01 0.01 0.01 0.01 0.02 0.02 0.02 0.01 0.01 0.01 0.02 0.01 0.01 0.01 0.00 0.00 0.00

GFSNGP_prec_precacc24_054.txt.gz
Total_Precipitation_Accumulation
0.00 0.00 0.00 0.00 0.00 0.00 0.00 0.00 0.01 0.00 0.00 0.00 0.00 0.00 0.00 0.00 0.00 0.00 0.00 0.00 0.00 0.00 0.00 0.00 0.00 0.00 0.00 0.01 0.05 0.09 0.08 0.14 0.11 0.21 0.16 0.15 0.10 0.12 0.15 0.18 0.25 0.21 0.21 0.11
0.00 0.00 0.00 0.00 0.00 0.00 0.00 0.00 0.00 0.00 0.00 0.00 0.00 0.00 0.00 0.00 0.00 0.00 0.00 0.00 0.00 0.00 0.00 0.00 0.00 0.00 0.00 0.01 0.04 0.04 0.04 0.08 0.06 0.10 0.10 0.10 0.06 0.05 0.09 0.11 0.13 0.18 0.20 0.19
0.01 0.00 0.00 0.00 0.00 0.00 0.00 0.00 0.00 0.00 0.00 0.00 0.00 0.00 0.00 0.00 0.00 0.00 0.00 0.00 0.00 0.00 0.00 0.01 0.00 0.00 0.00 0.01 0.01 0.02 0.05 0.04 0.05 0.06 0.08 0.06 0.08 0.06 0.08 0.11 0.09 0.10 0.11 0.15
0.06 0.01 0.04 0.02 0.00 0.00 0.00 0.00 0.00 0.00 0.00 0.00 0.00 0.00 0.00 0.00 0.00 0.00 0.00 0.00 0.00 0.00 0.00 0.00 0.00 0.00 0.00 0.00 0.00 0.01 0.03 0.04 0.04 0.04 0.05 0.06 0.06 0.08 0.08 0.08 0.09 0.08 0.09 0.11
0.14 0.08 0.04 0.00 0.00 0.00 0.00 0.00 0.00 0.00 0.00 0.00 0.00 0.00 0.00 0.00 0.00 0.00 0.00 0.00 0.00 0.00 0.00 0.00 0.00 0.00 0.00 0.00 0.01 0.01 0.02 0.02 0.03 0.05 0.05 0.05 0.05 0.04 0.05 0.07 0.10 0.10 0.09 0.09
0.18 0.16 0.10 0.01 0.00 0.00 0.00 0.01 0.00 0.00 0.00 0.00 0.00 0.00 0.00 0.00 0.00 0.00 0.00 0.00 0.00 0.00 0.00 0.00 0.00 0.00 0.01 0.00 0.00 0.01 0.01 0.01 0.02 0.02 0.02 0.01 0.03 0.02 0.04 0.06 0.06 0.05 0.06 0.06
0.21 0.19 0.05 0.01 0.01 0.00 0.03 0.02 0.00 0.00 0.00 0.00 0.00 0.00 0.00 0.00 0.00 0.00 0.00 0.00 0.00 0.00 0.00 0.00 0.00 0.00 0.00 0.00 0.00 0.00 0.01 0.01 0.03 0.03 0.04 0.04 0.01 0.02 0.02 0.02 0.02 0.02 0.04 0.03
0.23 0.19 0.05 0.02 0.06 0.08 0.04 0.00 0.00 0.00 0.00 0.00 0.00 0.00 0.00 0.00 0.00 0.00 0.00 0.00 0.00 0.00 0.00 0.00 0.00 0.00 0.00 0.00 0.00 0.01 0.03 0.04 0.05 0.06 0.08 0.06 0.05 0.06 0.05 0.03 0.03 0.03 0.03 0.03
0.10 0.06 0.02 0.02 0.04 0.03 0.01 0.01 0.01 0.01 0.00 0.00 0.00 0.00 0.00 0.00 0.00 0.00 0.00 0.00 0.00 0.00 0.00 0.00 0.00 0.00 0.00 0.01 0.03 0.05 0.06 0.07 0.09 0.09 0.06 0.05 0.04 0.04 0.03 0.03 0.04 0.05 0.05 0.06
0.04 0.02 0.03 0.03 0.02 0.01 0.00 0.01 0.01 0.00 0.00 0.00 0.00 0.00 0.01 0.02 0.01 0.01 0.01 0.01 0.00 0.00 0.00 0.00 0.00 0.00 0.02 0.05 0.04 0.04 0.03 0.07 0.06 0.05 0.06 0.03 0.02 0.02 0.02 0.03 0.04 0.04 0.04 0.04
0.02 0.01 0.02 0.03 0.12 0.09 0.04 0.02 0.02 0.02 0.03 0.02 0.03 0.03 0.04 0.06 0.07 0.06 0.04 0.02 0.01 0.01 0.02 0.02 0.03 0.03 0.04 0.04 0.06 0.07 0.05 0.04 0.02 0.02 0.01 0.00 0.00 0.02 0.02 0.02 0.04 0.02 0.02 0.02
0.03 0.02 0.00 0.00 0.03 0.03 0.08 0.10 0.04 0.04 0.04 0.08 0.12 0.07 0.05 0.05 0.08 0.12 0.16 0.16 0.05 0.02 0.02 0.03 0.07 0.10 0.08 0.07 0.06 0.05 0.02 0.01 0.02 0.00 0.00 0.00 0.01 0.03 0.05 0.05 0.04 0.02 0.03 0.03
0.00 0.01 0.03 0.02 0.03 0.05 0.02 0.05 0.06 0.05 0.05 0.04 0.03 0.02 0.03 0.07 0.06 0.07 0.14 0.21 0.25 0.20 0.15 0.06 0.02 0.02 0.02 0.04 0.04 0.04 0.02 0.01 0.01 0.02 0.02 0.02 0.02 0.02 0.04 0.11 0.13 0.15 0.14 0.12
0.02 0.02 0.05 0.03 0.03 0.03 0.03 0.02 0.01 0.01 0.01 0.01 0.00 0.00 0.01 0.05 0.06 0.07 0.10 0.12 0.13 0.16 0.21 0.20 0.18 0.19 0.20 0.20 0.25 0.28 0.22 0.21 0.21 0.23 0.25 0.25 0.23 0.21 0.18 0.17 0.17 0.19 0.16 0.10
0.06 0.07 0.08 0.06 0.03 0.02 0.01 0.01 0.01 0.00 0.00 0.00 0.00 0.01 0.02 0.01 0.01 0.02 0.03 0.09 0.14 0.15 0.21 0.24 0.27 0.40 0.50 0.58 0.68 0.77 0.79 0.78 0.71 0.61 0.49 0.37 0.29 0.24 0.21 0.22 0.22 0.23 0.23 0.21
0.00 0.00 0.01 0.02 0.02 0.01 0.00 0.00 0.00 0.00 0.00 0.00 0.01 0.02 0.02 0.01 0.02 0.05 0.05 0.05 0.05 0.10 0.14 0.18 0.29 0.47 0.55 0.62 0.71 0.74 0.69 0.60 0.47 0.41 0.40 0.38 0.35 0.30 0.27 0.25 0.23 0.22 0.20 0.18
0.02 0.01 0.01 0.02 0.01 0.01 0.01 0.02 0.01 0.01 0.01 0.02 0.03 0.03 0.02 0.03 0.04 0.10 0.20 0.26 0.28 0.39 0.52 0.58 0.77 0.81 0.76 0.66 0.55 0.53 0.49 0.47 0.42 0.36 0.32 0.29 0.24 0.20 0.17 0.16 0.14 0.12 0.11 0.09
0.15 0.17 0.17 0.16 0.12 0.07 0.07 0.08 0.09 0.10 0.13 0.13 0.14 0.15 0.17 0.20 0.27 0.38 0.54 0.57 0.60 0.72 0.86 0.90 0.80 0.70 0.64 0.58 0.47 0.40 0.33 0.29 0.23 0.19 0.17 0.15 0.12 0.09 0.08 0.07 0.07 0.06 0.06 0.05
0.14 0.15 0.19 0.19 0.20 0.17 0.16 0.14 0.14 0.15 0.16 0.16 0.16 0.26 0.35 0.52 0.64 0.79 0.89 0.82 0.80 0.73 0.88 0.69 0.53 0.39 0.33 0.28 0.20 0.16 0.14 0.12 0.10 0.09 0.08 0.06 0.05 0.05 0.04 0.04 0.04 0.04 0.04 0.03
0.18 0.20 0.18 0.18 0.17 0.17 0.17 0.21 0.20 0.26 0.45 0.47 0.55 0.70 0.79 0.95 0.93 0.87 0.73 0.66 0.65 0.60 0.50 0.38 0.27 0.20 0.16 0.14 0.10 0.08 0.07 0.06 0.05 0.05 0.04 0.03 0.03 0.03 0.03 0.01 0.01 0.01 0.01 0.01
0.37 0.36 0.36 0.35 0.41 0.50 0.57 0.67 0.55 0.66 0.88 0.81 0.66 0.73 0.70 0.77 0.69 0.59 0.43 0.38 0.48 0.34 0.26 0.21 0.16 0.13 0.08 0.06 0.05 0.05 0.03 0.02 0.02 0.01 0.01 0.00 0.01 0.01 0.01 0.01 0.01 0.01 0.01 0.01
0.66 0.59 0.64 0.62 0.51 0.63 0.72 0.68 0.56 0.57 0.58 0.56 0.54 0.53 0.45 0.49 0.44 0.36 0.32 0.28 0.30 0.19 0.13 0.09 0.06 0.04 0.03 0.02 0.01 0.01 0.00 0.00 0.00 0.00 0.01 0.01 0.01 0.01 0.01 0.01 0.01 0.01 0.01 0.01
0.56 0.52 0.51 0.49 0.44 0.49 0.47 0.44 0.45 0.37 0.37 0.37 0.34 0.33 0.27 0.27 0.22 0.15 0.17 0.16 0.09 0.06 0.04 0.02 0.01 0.00 0.00 0.00 0.00 0.00 0.00 0.00 0.00 0.00 0.01 0.01 0.01 0.01 0.01 0.02 0.01 0.01 0.01 0.01
0.33 0.28 0.29 0.30 0.20 0.13 0.17 0.25 0.18 0.16 0.14 0.14 0.14 0.13 0.10 0.07 0.09 0.07 0.05 0.04 0.02 0.01 0.00 0.00 0.00 0.00 0.00 0.00 0.01 0.01 0.01 0.01 0.01 0.01 0.01 0.01 0.01 0.02 0.01 0.01 0.01 0.01 0.01 0.01
0.18 0.17 0.15 0.12 0.09 0.15 0.14 0.13 0.08 0.08 0.06 0.06 0.06 0.04 0.03 0.03 0.04 0.05 0.02 0.01 0.00 0.02 0.02 0.00 0.00 0.00 0.00 0.01 0.01 0.01 0.01 0.01 0.02 0.01 0.01 0.02 0.01 0.02 0.01 0.02 0.02 0.01 0.01 0.01
0.08 0.07 0.07 0.06 0.08 0.07 0.07 0.03 0.05 0.07 0.03 0.03 0.05 0.04 0.04 0.02 0.02 0.02 0.02 0.01 0.01 0.00 0.02 0.02 0.01 0.01 0.01 0.01 0.01 0.01 0.01 0.01 0.01 0.02 0.02 0.01 0.01 0.01 0.01 0.01 0.01 0.01 0.01 0.00
0.02 0.02 0.01 0.01 0.01 0.01 0.01 0.01 0.01 0.02 0.03 0.03 0.05 0.05 0.04 0.03 0.02 0.01 0.02 0.01 0.01 0.01 0.01 0.01 0.02 0.02 0.01 0.01 0.01 0.01 0.01 0.01 0.02 0.02 0.01 0.01 0.01 0.01 0.01 0.01 0.01 0.00 0.00 0.00

GFSNGP_prec_precacc24_057.txt.gz
Total_Precipitation_Accumulation
0.00 0.00 0.00 0.00 0.00 0.00 0.00 0.00 0.01 0.00 0.00 0.00 0.00 0.00 0.00 0.00 0.00 0.00 0.00 0.00 0.00 0.00 0.00 0.00 0.00 0.00 0.00 0.01 0.05 0.07 0.05 0.10 0.09 0.20 0.16 0.15 0.10 0.13 0.15 0.18 0.25 0.21 0.21 0.11
0.00 0.00 0.00 0.00 0.00 0.00 0.00 0.00 0.00 0.00 0.00 0.00 0.00 0.00 0.00 0.00 0.00 0.00 0.00 0.00 0.00 0.00 0.00 0.00 0.00 0.00 0.00 0.00 0.02 0.03 0.03 0.07 0.06 0.10 0.10 0.10 0.06 0.05 0.09 0.11 0.13 0.18 0.20 0.19
0.01 0.00 0.00 0.00 0.00 0.00 0.00 0.00 0.00 0.00 0.00 0.00 0.00 0.00 0.00 0.00 0.00 0.00 0.00 0.00 0.00 0.00 0.00 0.01 0.00 0.00 0.00 0.00 0.01 0.02 0.05 0.04 0.05 0.06 0.08 0.06 0.08 0.06 0.08 0.11 0.09 0.10 0.11 0.15
0.06 0.01 0.04 0.02 0.00 0.00 0.00 0.00 0.00 0.00 0.00 0.00 0.00 0.00 0.00 0.00 0.00 0.00 0.00 0.00 0.00 0.00 0.00 0.00 0.00 0.00 0.00 0.00 0.00 0.01 0.03 0.04 0.04 0.04 0.05 0.06 0.06 0.08 0.08 0.08 0.09 0.08 0.09 0.11
0.14 0.08 0.04 0.00 0.00 0.00 0.00 0.00 0.00 0.00 0.00 0.00 0.00 0.00 0.00 0.00 0.00 0.00 0.00 0.00 0.00 0.00 0.00 0.00 0.00 0.00 0.00 0.00 0.01 0.01 0.02 0.02 0.03 0.05 0.05 0.05 0.05 0.04 0.05 0.07 0.10 0.10 0.09 0.09
0.18 0.16 0.10 0.01 0.00 0.00 0.00 0.01 0.00 0.00 0.00 0.00 0.00 0.00 0.00 0.00 0.00 0.00 0.00 0.00 0.00 0.00 0.00 0.00 0.00 0.00 0.01 0.00 0.00 0.01 0.01 0.01 0.02 0.02 0.02 0.01 0.03 0.02 0.04 0.06 0.06 0.05 0.06 0.06
0.19 0.20 0.06 0.01 0.01 0.00 0.03 0.04 0.00 0.00 0.00 0.00 0.00 0.00 0.00 0.00 0.00 0.00 0.00 0.00 0.00 0.00 0.00 0.00 0.00 0.00 0.00 0.00 0.00 0.00 0.01 0.01 0.03 0.03 0.04 0.04 0.01 0.02 0.02 0.03 0.02 0.03 0.04 0.03
0.23 0.20 0.06 0.02 0.06 0.09 0.08 0.01 0.00 0.00 0.00 0.00 0.00 0.00 0.00 0.00 0.00 0.00 0.00 0.00 0.00 0.00 0.00 0.00 0.00 0.00 0.00 0.00 0.00 0.01 0.03 0.04 0.05 0.06 0.08 0.06 0.05 0.06 0.06 0.04 0.04 0.04 0.04 0.04
0.10 0.06 0.02 0.02 0.06 0.04 0.01 0.01 0.01 0.01 0.00 0.00 0.00 0.00 0.00 0.00 0.00 0.00 0.00 0.00 0.00 0.00 0.00 0.00 0.00 0.00 0.00 0.01 0.03 0.05 0.06 0.07 0.09 0.09 0.06 0.05 0.05 0.06 0.06 0.06 0.07 0.08 0.07 0.08
0.07 0.02 0.03 0.03 0.02 0.01 0.00 0.01 0.01 0.00 0.00 0.00 0.00 0.00 0.01 0.02 0.01 0.01 0.01 0.01 0.00 0.00 0.00 0.00 0.00 0.00 0.02 0.05 0.04 0.04 0.03 0.07 0.06 0.05 0.08 0.05 0.05 0.05 0.06 0.06 0.07 0.06 0.06 0.06
0.03 0.01 0.02 0.03 0.12 0.09 0.04 0.02 0.02 0.02 0.03 0.02 0.03 0.03 0.04 0.06 0.07 0.06 0.04 0.03 0.02 0.01 0.02 0.03 0.04 0.06 0.07 0.06 0.09 0.11 0.08 0.07 0.06 0.06 0.06 0.05 0.05 0.08 0.05 0.06 0.08 0.05 0.05 0.05
0.05 0.04 0.01 0.02 0.03 0.03 0.08 0.10 0.04 0.04 0.04 0.08 0.12 0.07 0.05 0.05 0.08 0.12 0.16 0.18 0.15 0.13 0.10 0.10 0.12 0.16 0.16 0.15 0.14 0.14 0.11 0.10 0.11 0.09 0.07 0.06 0.05 0.08 0.13 0.13 0.13 0.12 0.13 0.12
0.02 0.01 0.02 0.01 0.03 0.04 0.02 0.05 0.06 0.05 0.05 0.04 0.03 0.02 0.03 0.07 0.06 0.07 0.14 0.22 0.31 0.32 0.29 0.30 0.33 0.32 0.27 0.24 0.17 0.14 0.13 0.10 0.12 0.15 0.13 0.12 0.11 0.10 0.15 0.27 0.29 0.32 0.31 0.27
0.02 0.02 0.05 0.03 0.03 0.03 0.03 0.02 0.01 0.01 0.01 0.01 0.00 0.00 0.01 0.05 0.06 0.07 0.10 0.13 0.15 0.22 0.35 0.45 0.53 0.61 0.73 0.64 0.46 0.47 0.49 0.51 0.47 0.49 0.52 0.51 0.46 0.45 0.42 0.40 0.38 0.38 0.31 0.20
0.06 0.07 0.08 0.06 0.03 0.02 0.01 0.01 0.01 0.00 0.00 0.00 0.00 0.01 0.02 0.03 0.03 0.03 0.04 0.10 0.15 0.19 0.31 0.42 0.53 0.72 0.89 1.03 1.11 1.14 1.17 1.21 1.15 1.09 0.97 0.76 0.58 0.46 0.39 0.36 0.33 0.32 0.30 0.28
0.00 0.00 0.01 0.02 0.02 0.01 0.00 0.01 0.00 0.00 0.00 0.00 0.02 0.03 0.03 0.02 0.03 0.06 0.07 0.07 0.08 0.14 0.21 0.25 0.37 0.61 0.71 0.81 0.88 0.91 0.85 0.75 0.60 0.52 0.51 0.48 0.45 0.38 0.34 0.31 0.29 0.27 0.25 0.23
0.02 0.01 0.01 0.02 0.02 0.01 0.02 0.02 0.02 0.02 0.02 0.03 0.04 0.05 0.04 0.04 0.05 0.11 0.22 0.30 0.36 0.51 0.62 0.66 0.88 0.92 0.84 0.74 0.61 0.60 0.55 0.52 0.47 0.41 0.37 0.33 0.28 0.22 0.20 0.18 0.16 0.13 0.12 0.10
0.15 0.17 0.18 0.17 0.12 0.08 0.08 0.09 0.10 0.11 0.15 0.15 0.16 0.17 0.18 0.20 0.27 0.35 0.48 0.49 0.50 0.64 0.82 0.92 0.83 0.72 0.66 0.60 0.48 0.41 0.34 0.30 0.24 0.20 0.18 0.15 0.12 0.10 0.09 0.08 0.07 0.06 0.06 0.05
0.14 0.15 0.20 0.20 0.21 0.18 0.16 0.16 0.16 0.17 0.20 0.20 0.19 0.26 0.27 0.36 0.44 0.59 0.68 0.63 0.68 0.65 0.86 0.69 0.54 0.39 0.34 0.28 0.20 0.16 0.14 0.12 0.10 0.09 0.08 0.07 0.06 0.05 0.05 0.04 0.05 0.04 0.04 0.03
0.19 0.21 0.18 0.19 0.18 0.16 0.17 0.21 0.19 0.22 0.38 0.38 0.42 0.52 0.62 0.78 0.77 0.74 0.63 0.59 0.61 0.58 0.50 0.38 0.27 0.20 0.16 0.14 0.10 0.08 0.07 0.06 0.05 0.05 0.04 0.03 0.03 0.03 0.03 0.01 0.01 0.01 0.01 0.01
0.28 0.28 0.29 0.30 0.34 0.37 0.40 0.49 0.39 0.48 0.67 0.64 0.55 0.63 0.62 0.67 0.59 0.51 0.37 0.34 0.46 0.33 0.26 0.21 0.16 0.13 0.08 0.06 0.05 0.05 0.03 0.02 0.02 0.01 0.01 0.00 0.00 0.00 0.01 0.01 0.01 0.01 0.01 0.01
0.44 0.41 0.47 0.49 0.40 0.50 0.59 0.56 0.46 0.48 0.50 0.49 0.47 0.46 0.38 0.42 0.38 0.32 0.30 0.26 0.29 0.19 0.13 0.09 0.06 0.04 0.03 0.02 0.01 0.01 0.00 0.00 0.00 0.00 0.00 0.00 0.01 0.01 0.01 0.01 0.01 0.01 0.01 0.01
0.44 0.42 0.42 0.42 0.39 0.44 0.42 0.39 0.39 0.32 0.31 0.31 0.28 0.27 0.22 0.22 0.19 0.13 0.16 0.16 0.09 0.06 0.04 0.02 0.01 0.00 0.00 0.00 0.00 0.00 0.00 0.00 0.00 0.00 0.01 0.01 0.01 0.01 0.01 0.02 0.01 0.01 0.01 0.01
0.28 0.24 0.24 0.24 0.16 0.11 0.14 0.19 0.13 0.12 0.11 0.11 0.11 0.11 0.08 0.06 0.08 0.07 0.05 0.04 0.02 0.01 0.00 0.00 0.00 0.00 0.00 0.00 0.00 0.00 0.00 0.01 0.01 0.01 0.01 0.01 0.01 0.01 0.01 0.01 0.01 0.01 0.01 0.01
0.14 0.12 0.10 0.07 0.05 0.09 0.09 0.09 0.06 0.06 0.05 0.05 0.05 0.04 0.03 0.03 0.04 0.05 0.01 0.00 0.00 0.02 0.02 0.00 0.00 0.00 0.00 0.01 0.01 0.00 0.01 0.01 0.01 0.01 0.01 0.02 0.01 0.01 0.01 0.01 0.02 0.01 0.01 0.01
0.05 0.05 0.05 0.04 0.05 0.05 0.05 0.02 0.04 0.06 0.03 0.03 0.04 0.04 0.03 0.02 0.02 0.01 0.01 0.01 0.01 0.00 0.01 0.02 0.01 0.01 0.01 0.01 0.01 0.00 0.01 0.01 0.01 0.01 0.01 0.01 0.01 0.01 0.01 0.01 0.01 0.01 0.01 0.00
0.01 0.01 0.01 0.01 0.00 0.00 0.00 0.00 0.01 0.01 0.02 0.02 0.04 0.05 0.03 0.02 0.02 0.01 0.01 0.01 0.01 0.01 0.01 0.01 0.02 0.01 0.01 0.01 0.01 0.01 0.01 0.01 0.01 0.01 0.01 0.01 0.01 0.01 0.01 0.01 0.01 0.00 0.00 0.00

GFSNGP_prec_precacc24_063.txt.gz
Total_Precipitation_Accumulation
0.00 0.00 0.03 0.04 0.01 0.01 0.02 0.03 0.08 0.03 0.09 0.12 0.10 0.00 0.00 0.00 0.00 0.00 0.00 0.00 0.00 0.00 0.00 0.00 0.00 0.01 0.02 0.04 0.06 0.06 0.09 0.10 0.07 0.09 0.13 0.11 0.07 0.11 0.15 0.16 0.24 0.21 0.20 0.11
0.00 0.00 0.00 0.00 0.01 0.06 0.03 0.01 0.03 0.04 0.08 0.06 0.10 0.05 0.00 0.00 0.00 0.00 0.00 0.00 0.00 0.00 0.00 0.00 0.00 0.00 0.00 0.00 0.02 0.03 0.03 0.09 0.09 0.08 0.09 0.10 0.05 0.06 0.09 0.11 0.13 0.18 0.20 0.19
0.06 0.00 0.00 0.00 0.00 0.01 0.06 0.03 0.02 0.05 0.01 0.01 0.01 0.01 0.00 0.00 0.00 0.00 0.00 0.00 0.00 0.00 0.00 0.00 0.00 0.00 0.00 0.00 0.00 0.01 0.04 0.04 0.05 0.06 0.08 0.06 0.09 0.06 0.08 0.11 0.09 0.10 0.12 0.16
0.12 0.04 0.06 0.01 0.00 0.00 0.00 0.02 0.00 0.00 0.00 0.00 0.00 0.00 0.00 0.00 0.00 0.00 0.00 0.00 0.00 0.00 0.00 0.00 0.00 0.00 0.00 0.00 0.00 0.01 0.03 0.03 0.04 0.04 0.06 0.08 0.09 0.08 0.08 0.08 0.09 0.08 0.09 0.12
0.16 0.16 0.07 0.01 0.00 0.00 0.00 0.00 0.00 0.00 0.00 0.00 0.00 0.00 0.00 0.00 0.00 0.00 0.00 0.00 0.00 0.00 0.00 0.00 0.00 0.00 0.00 0.00 0.01 0.01 0.02 0.02 0.03 0.05 0.06 0.05 0.06 0.05 0.05 0.07 0.10 0.10 0.11 0.10
0.19 0.19 0.11 0.02 0.00 0.00 0.00 0.02 0.00 0.00 0.00 0.00 0.00 0.00 0.00 0.00 0.00 0.00 0.00 0.00 0.00 0.00 0.00 0.00 0.00 0.00 0.01 0.00 0.00 0.01 0.01 0.01 0.02 0.02 0.02 0.01 0.03 0.03 0.04 0.06 0.06 0.05 0.06 0.06
0.16 0.20 0.07 0.01 0.01 0.00 0.04 0.09 0.00 0.00 0.00 0.00 0.00 0.00 0.00 0.00 0.00 0.00 0.00 0.00 0.00 0.00 0.00 0.00 0.00 0.00 0.00 0.00 0.00 0.00 0.01 0.01 0.03 0.03 0.04 0.04 0.02 0.02 0.03 0.03 0.03 0.04 0.05 0.05
0.13 0.19 0.07 0.02 0.06 0.12 0.14 0.03 0.00 0.00 0.00 0.00 0.00 0.00 0.00 0.00 0.00 0.00 0.00 0.00 0.00 0.00 0.00 0.00 0.00 0.00 0.00 0.00 0.00 0.01 0.03 0.04 0.05 0.06 0.08 0.06 0.06 0.08 0.09 0.07 0.08 0.08 0.07 0.06
0.03 0.05 0.04 0.05 0.09 0.08 0.03 0.02 0.01 0.01 0.00 0.00 0.00 0.00 0.00 0.00 0.00 0.00 0.00 0.00 0.00 0.00 0.00 0.00 0.00 0.00 0.00 0.01 0.03 0.05 0.06 0.07 0.09 0.09 0.06 0.05 0.08 0.11 0.12 0.11 0.12 0.13 0.11 0.12
0.11 0.09 0.08 0.17 0.13 0.02 0.01 0.01 0.01 0.00 0.00 0.00 0.00 0.00 0.01 0.02 0.01 0.01 0.01 0.01 0.00 0.00 0.00 0.00 0.00 0.00 0.02 0.05 0.04 0.04 0.04 0.08 0.07 0.06 0.09 0.05 0.09 0.11 0.11 0.11 0.14 0.16 0.19 0.22
0.16 0.20 0.16 0.27 0.36 0.10 0.02 0.00 0.01 0.01 0.01 0.02 0.03 0.03 0.04 0.06 0.07 0.06 0.04 0.03 0.02 0.01 0.02 0.03 0.04 0.06 0.07 0.07 0.10 0.12 0.10 0.11 0.11 0.11 0.12 0.11 0.12 0.19 0.17 0.23 0.33 0.34 0.35 0.34
0.24 0.47 0.33 0.48 0.22 0.14 0.06 0.01 0.01 0.01 0.02 0.07 0.12 0.07 0.05 0.05 0.08 0.12 0.16 0.19 0.15 0.13 0.11 0.11 0.13 0.18 0.19 0.18 0.16 0.17 0.16 0.18 0.22 0.17 0.17 0.17 0.16 0.24 0.40 0.44 0.43 0.48 0.53 0.52
0.15 0.22 0.15 0.10 0.08 0.04 0.02 0.03 0.04 0.03 0.04 0.04 0.03 0.02 0.03 0.07 0.06 0.07 0.14 0.22 0.32 0.32 0.30 0.31 0.34 0.37 0.36 0.37 0.32 0.30 0.30 0.27 0.28 0.30 0.32 0.33 0.33 0.31 0.40 0.58 0.63 0.75 0.80 0.79
0.02 0.03 0.05 0.03 0.03 0.02 0.02 0.02 0.01 0.01 0.01 0.01 0.00 0.00 0.01 0.05 0.06 0.08 0.11 0.14 0.16 0.23 0.37 0.47 0.54 0.66 0.83 0.87 0.87 0.92 0.96 0.97 0.88 0.86 0.91 1.02 1.14 1.23 1.25 1.23 1.21 1.26 1.20 1.03
0.06 0.07 0.08 0.06 0.03 0.02 0.01 0.01 0.01 0.00 0.00 0.00 0.00 0.01 0.02 0.03 0.04 0.04 0.06 0.11 0.16 0.20 0.32 0.44 0.55 0.80 0.99 1.17 1.34 1.53 1.64 1.77 1.75 1.69 1.58 1.40 1.23 1.10 1.05 1.04 1.01 1.03 0.99 0.88
0.00 0.00 0.01 0.02 0.02 0.01 0.00 0.01 0.00 0.00 0.00 0.00 0.02 0.03 0.03 0.03 0.05 0.08 0.09 0.09 0.09 0.16 0.23 0.27 0.40 0.69 0.79 0.88 0.99 1.06 1.05 0.98 0.85 0.80 0.78 0.73 0.70 0.63 0.58 0.54 0.50 0.47 0.44 0.42
0.02 0.02 0.01 0.02 0.02 0.01 0.02 0.02 0.02 0.02 0.03 0.04 0.07 0.07 0.05 0.05 0.06 0.13 0.25 0.33 0.39 0.54 0.65 0.70 0.94 0.96 0.84 0.71 0.54 0.52 0.51 0.54 0.53 0.50 0.49 0.46 0.40 0.34 0.30 0.26 0.23 0.19 0.18 0.14
0.15 0.17 0.18 0.17 0.13 0.08 0.08 0.10 0.11 0.12 0.16 0.17 0.17 0.18 0.19 0.21 0.27 0.35 0.47 0.50 0.48 0.56 0.67 0.73 0.66 0.53 0.45 0.40 0.34 0.33 0.29 0.28 0.24 0.22 0.20 0.17 0.15 0.13 0.11 0.10 0.09 0.07 0.07 0.06
0.15 0.16 0.20 0.21 0.21 0.18 0.17 0.17 0.18 0.19 0.22 0.22 0.21 0.28 0.29 0.33 0.35 0.43 0.48 0.40 0.40 0.33 0.50 0.38 0.28 0.20 0.19 0.18 0.14 0.12 0.11 0.10 0.09 0.09 0.08 0.06 0.06 0.06 0.05 0.05 0.05 0.04 0.04 0.03
0.19 0.21 0.19 0.19 0.18 0.17 0.17 0.22 0.19 0.20 0.31 0.29 0.28 0.32 0.35 0.48 0.47 0.42 0.31 0.26 0.28 0.28 0.25 0.19 0.13 0.11 0.10 0.09 0.07 0.06 0.06 0.05 0.05 0.05 0.04 0.04 0.04 0.03 0.02 0.01 0.01 0.01 0.01 0.01
0.22 0.22 0.23 0.22 0.24 0.27 0.28 0.34 0.24 0.27 0.39 0.35 0.27 0.30 0.28 0.32 0.28 0.23 0.14 0.13 0.24 0.17 0.13 0.11 0.09 0.08 0.07 0.06 0.05 0.04 0.03 0.02 0.02 0.01 0.01 0.00 0.01 0.01 0.00 0.00 0.01 0.01 0.01 0.01
0.29 0.24 0.27 0.26 0.19 0.25 0.32 0.31 0.25 0.26 0.27 0.26 0.25 0.26 0.19 0.22 0.19 0.15 0.14 0.13 0.15 0.09 0.06 0.06 0.05 0.03 0.03 0.02 0.01 0.00 0.00 0.00 0.00 0.00 0.00 0.00 0.00 0.01 0.00 0.01 0.01 0.01 0.01 0.01
0.33 0.30 0.29 0.27 0.23 0.25 0.24 0.21 0.21 0.16 0.15 0.14 0.12 0.11 0.07 0.08 0.06 0.03 0.06 0.07 0.04 0.02 0.01 0.01 0.00 0.00 0.00 0.00 0.00 0.00 0.00 0.00 0.00 0.00 0.00 0.00 0.00 0.01 0.01 0.01 0.01 0.01 0.01 0.01
0.21 0.18 0.16 0.14 0.09 0.06 0.06 0.07 0.04 0.02 0.02 0.02 0.02 0.02 0.02 0.01 0.03 0.02 0.01 0.01 0.01 0.00 0.00 0.00 0.00 0.00 0.00 0.00 0.00 0.00 0.00 0.00 0.01 0.00 0.00 0.00 0.01 0.01 0.01 0.00 0.00 0.01 0.01 0.01
0.09 0.07 0.03 0.02 0.01 0.02 0.02 0.01 0.00 0.00 0.00 0.01 0.01 0.01 0.01 0.00 0.02 0.02 0.00 0.00 0.00 0.00 0.01 0.00 0.00 0.00 0.00 0.00 0.00 0.00 0.01 0.00 0.01 0.00 0.00 0.01 0.01 0.01 0.01 0.01 0.00 0.01 0.01 0.00
0.02 0.01 0.01 0.00 0.01 0.01 0.00 0.00 0.01 0.02 0.01 0.02 0.03 0.03 0.03 0.02 0.01 0.01 0.01 0.00 0.00 0.00 0.00 0.00 0.00 0.00 0.01 0.00 0.00 0.00 0.00 0.00 0.00 0.00 0.00 0.01 0.01 0.01 0.00 0.00 0.00 0.00 0.00 0.00
0.00 0.00 0.00 0.00 0.00 0.00 0.00 0.00 0.01 0.01 0.01 0.01 0.02 0.03 0.02 0.02 0.01 0.00 0.00 0.00 0.00 0.00 0.00 0.01 0.01 0.00 0.01 0.00 0.00 0.00 0.00 0.00 0.00 0.00 0.00 0.01 0.00 0.01 0.00 0.00 0.00 0.00 0.00 0.00

GFSNGP_prec_precacc24_069.txt.gz
Total_Precipitation_Accumulation
0.00 0.00 0.03 0.08 0.08 0.06 0.07 0.05 0.11 0.04 0.10 0.23 0.50 0.57 0.15 0.00 0.00 0.00 0.00 0.00 0.01 0.01 0.01 0.01 0.02 0.03 0.05 0.05 0.06 0.09 0.10 0.05 0.07 0.06 0.06 0.06 0.04 0.08 0.07 0.06 0.09 0.11 0.11 0.05
0.00 0.00 0.00 0.01 0.01 0.11 0.12 0.06 0.06 0.05 0.12 0.18 0.36 0.44 0.27 0.16 0.03 0.00 0.00 0.00 0.00 0.00 0.00 0.00 0.00 0.00 0.00 0.00 0.02 0.02 0.02 0.06 0.10 0.03 0.06 0.08 0.10 0.16 0.11 0.05 0.08 0.12 0.13 0.13
0.05 0.00 0.00 0.00 0.00 0.03 0.10 0.13 0.22 0.22 0.07 0.11 0.16 0.35 0.18 0.21 0.14 0.06 0.01 0.00 0.00 0.00 0.00 0.00 0.00 0.00 0.00 0.00 0.00 0.00 0.00 0.01 0.01 0.01 0.01 0.03 0.09 0.09 0.07 0.09 0.16 0.10 0.12 0.16
0.07 0.04 0.03 0.00 0.00 0.00 0.02 0.06 0.08 0.12 0.14 0.18 0.06 0.12 0.21 0.05 0.17 0.11 0.04 0.01 0.00 0.00 0.00 0.00 0.00 0.00 0.00 0.00 0.00 0.00 0.00 0.00 0.00 0.00 0.01 0.02 0.04 0.05 0.08 0.12 0.14 0.12 0.14 0.15
0.06 0.10 0.04 0.01 0.00 0.00 0.03 0.03 0.04 0.06 0.10 0.09 0.08 0.04 0.10 0.02 0.03 0.06 0.03 0.01 0.00 0.00 0.00 0.00 0.00 0.00 0.00 0.00 0.00 0.00 0.00 0.00 0.00 0.01 0.01 0.02 0.04 0.05 0.07 0.09 0.12 0.14 0.14 0.16
0.08 0.06 0.02 0.00 0.00 0.00 0.00 0.04 0.01 0.01 0.06 0.10 0.01 0.01 0.05 0.06 0.06 0.04 0.01 0.00 0.00 0.00 0.00 0.00 0.00 0.00 0.00 0.00 0.00 0.00 0.00 0.00 0.01 0.01 0.01 0.01 0.03 0.02 0.05 0.08 0.08 0.09 0.08 0.09
0.07 0.07 0.02 0.00 0.00 0.00 0.05 0.12 0.01 0.00 0.01 0.03 0.01 0.00 0.00 0.01 0.02 0.02 0.00 0.00 0.00 0.00 0.00 0.00 0.00 0.00 0.00 0.00 0.00 0.00 0.00 0.00 0.03 0.03 0.03 0.04 0.02 0.02 0.03 0.04 0.04 0.05 0.08 0.08
0.05 0.08 0.02 0.00 0.01 0.06 0.16 0.05 0.02 0.01 0.01 0.01 0.02 0.00 0.00 0.00 0.00 0.00 0.00 0.00 0.00 0.00 0.00 0.00 0.00 0.00 0.00 0.00 0.00 0.01 0.02 0.04 0.05 0.06 0.08 0.06 0.06 0.08 0.09 0.07 0.08 0.09 0.09 0.11
0.01 0.01 0.05 0.07 0.08 0.07 0.03 0.10 0.06 0.18 0.14 0.10 0.10 0.08 0.03 0.01 0.00 0.00 0.00 0.00 0.00 0.00 0.00 0.00 0.00 0.00 0.00 0.01 0.03 0.05 0.06 0.07 0.09 0.09 0.06 0.05 0.08 0.11 0.12 0.11 0.13 0.15 0.17 0.21
0.20 0.14 0.10 0.20 0.19 0.03 0.00 0.01 0.01 0.05 0.20 0.12 0.10 0.05 0.03 0.02 0.01 0.01 0.01 0.01 0.00 0.00 0.00 0.00 0.00 0.00 0.02 0.05 0.04 0.04 0.04 0.08 0.07 0.06 0.09 0.05 0.09 0.11 0.11 0.12 0.16 0.21 0.29 0.35
0.35 0.35 0.23 0.30 0.49 0.24 0.06 0.02 0.02 0.01 0.00 0.00 0.01 0.02 0.03 0.05 0.07 0.06 0.04 0.03 0.02 0.01 0.02 0.03 0.05 0.07 0.07 0.07 0.10 0.12 0.10 0.11 0.11 0.11 0.12 0.11 0.14 0.23 0.20 0.31 0.40 0.40 0.46 0.49
0.45 0.72 0.79 0.75 0.34 0.29 0.34 0.13 0.03 0.01 0.01 0.06 0.11 0.05 0.04 0.04 0.07 0.12 0.16 0.19 0.15 0.13 0.11 0.11 0.13 0.18 0.19 0.18 0.16 0.17 0.16 0.18 0.22 0.17 0.18 0.18 0.18 0.27 0.46 0.52 0.51 0.58 0.65 0.67
0.61 0.62 0.70 0.59 0.24 0.08 0.06 0.11 0.10 0.05 0.04 0.03 0.02 0.01 0.03 0.06 0.06 0.08 0.14 0.22 0.33 0.33 0.31 0.31 0.35 0.38 0.37 0.37 0.32 0.30 0.30 0.27 0.29 0.30 0.32 0.33 0.35 0.34 0.46 0.66 0.72 0.88 0.97 0.99
0.28 0.23 0.06 0.04 0.04 0.03 0.02 0.02 0.01 0.01 0.01 0.01 0.00 0.00 0.01 0.04 0.06 0.07 0.11 0.14 0.16 0.23 0.37 0.48 0.55 0.68 0.84 0.88 0.87 0.92 0.97 0.97 0.89 0.86 0.91 1.03 1.15 1.25 1.31 1.32 1.30 1.38 1.36 1.22
0.05 0.06 0.06 0.05 0.03 0.02 0.01 0.01 0.01 0.00 0.00 0.00 0.00 0.01 0.02 0.03 0.04 0.05 0.06 0.10 0.15 0.19 0.31 0.43 0.56 0.82 1.01 1.17 1.34 1.53 1.64 1.76 1.74 1.67 1.57 1.39 1.21 1.08 1.03 1.01 1.00 1.06 1.06 0.98
0.00 0.00 0.01 0.02 0.02 0.01 0.00 0.01 0.01 0.01 0.01 0.01 0.02 0.04 0.04 0.03 0.05 0.09 0.10 0.10 0.09 0.16 0.23 0.27 0.38 0.67 0.73 0.81 0.89 0.94 0.93 0.87 0.75 0.69 0.63 0.58 0.56 0.54 0.53 0.50 0.48 0.46 0.43 0.43
0.02 0.02 0.02 0.03 0.02 0.01 0.02 0.03 0.02 0.03 0.04 0.05 0.08 0.07 0.06 0.05 0.06 0.13 0.22 0.28 0.32 0.43 0.48 0.48 0.66 0.66 0.56 0.48 0.38 0.37 0.36 0.36 0.34 0.31 0.33 0.31 0.28 0.25 0.22 0.18 0.17 0.16 0.16 0.12
0.07 0.08 0.10 0.11 0.10 0.06 0.07 0.08 0.09 0.11 0.16 0.18 0.18 0.18 0.20 0.22 0.27 0.33 0.40 0.37 0.28 0.27 0.33 0.39 0.37 0.30 0.26 0.22 0.17 0.16 0.14 0.13 0.10 0.09 0.08 0.06 0.06 0.05 0.05 0.05 0.04 0.04 0.04 0.03
0.13 0.13 0.17 0.16 0.14 0.13 0.15 0.16 0.16 0.18 0.21 0.22 0.20 0.24 0.24 0.24 0.22 0.23 0.23 0.15 0.13 0.12 0.25 0.19 0.13 0.08 0.07 0.06 0.03 0.02 0.02 0.01 0.01 0.01 0.01 0.01 0.01 0.02 0.02 0.02 0.02 0.02 0.01 0.01
0.16 0.17 0.16 0.15 0.14 0.13 0.14 0.17 0.16 0.15 0.22 0.20 0.17 0.18 0.18 0.24 0.23 0.21 0.16 0.12 0.14 0.16 0.13 0.09 0.05 0.03 0.03 0.02 0.01 0.01 0.01 0.01 0.00 0.01 0.01 0.01 0.01 0.01 0.01 0.00 0.01 0.01 0.01 0.01
0.13 0.13 0.12 0.12 0.13 0.15 0.16 0.19 0.14 0.15 0.21 0.20 0.16 0.18 0.17 0.18 0.16 0.14 0.08 0.07 0.12 0.07 0.05 0.03 0.02 0.02 0.01 0.01 0.00 0.00 0.00 0.00 0.00 0.00 0.00 0.00 0.00 0.01 0.00 0.01 0.01 0.01 0.01 0.01
0.16 0.14 0.15 0.15 0.12 0.16 0.20 0.21 0.16 0.17 0.17 0.16 0.15 0.15 0.11 0.11 0.09 0.06 0.05 0.04 0.04 0.02 0.01 0.00 0.00 0.00 0.00 0.00 0.00 0.00 0.00 0.00 0.00 0.00 0.00 0.00 0.00 0.00 0.00 0.01 0.01 0.01 0.01 0.01
0.21 0.20 0.21 0.21 0.19 0.19 0.19 0.16 0.16 0.13 0.11 0.09 0.07 0.06 0.03 0.03 0.01 0.00 0.01 0.01 0.00 0.00 0.00 0.00 0.00 0.00 0.00 0.00 0.00 0.00 0.00 0.00 0.00 0.00 0.00 0.00 0.00 0.00 0.00 0.00 0.01 0.01 0.01 0.00
0.18 0.17 0.14 0.12 0.09 0.05 0.04 0.04 0.02 0.01 0.00 0.00 0.00 0.01 0.00 0.00 0.01 0.00 0.00 0.00 0.00 0.00 0.00 0.00 0.00 0.00 0.00 0.00 0.00 0.00 0.00 0.00 0.01 0.01 0.00 0.00 0.01 0.01 0.01 0.00 0.00 0.01 0.00 0.00
0.11 0.08 0.05 0.02 0.00 0.00 0.00 0.00 0.00 0.00 0.00 0.00 0.00 0.00 0.00 0.00 0.01 0.01 0.00 0.00 0.00 0.00 0.00 0.00 0.00 0.00 0.00 0.00 0.00 0.00 0.01 0.00 0.00 0.00 0.00 0.01 0.01 0.01 0.01 0.01 0.00 0.00 0.00 0.00
0.02 0.01 0.01 0.00 0.00 0.00 0.00 0.00 0.01 0.01 0.00 0.01 0.02 0.02 0.02 0.01 0.01 0.01 0.00 0.00 0.00 0.00 0.00 0.00 0.00 0.00 0.01 0.00 0.00 0.00 0.00 0.00 0.00 0.00 0.00 0.01 0.01 0.01 0.00 0.00 0.00 0.00 0.00 0.00
0.00 0.00 0.00 0.00 0.00 0.00 0.00 0.00 0.01 0.01 0.01 0.01 0.02 0.02 0.02 0.01 0.00 0.00 0.00 0.00 0.00 0.00 0.01 0.01 0.01 0.01 0.00 0.00 0.00 0.00 0.00 0.00 0.00 0.00 0.00 0.01 0.00 0.01 0.00 0.00 0.00 0.00 0.00 0.00

GFSNGP_prec_precacc24_072.txt.gz
Total_Precipitation_Accumulation
0.00 0.00 0.03 0.08 0.08 0.07 0.16 0.21 0.26 0.06 0.11 0.28 0.63 0.69 0.25 0.02 0.00 0.00 0.00 0.01 0.03 0.04 0.05 0.06 0.07 0.09 0.08 0.08 0.08 0.10 0.10 0.05 0.08 0.06 0.06 0.05 0.03 0.03 0.02 0.01 0.02 0.02 0.02 0.02
0.00 0.00 0.00 0.01 0.01 0.11 0.13 0.08 0.09 0.05 0.12 0.21 0.40 0.52 0.39 0.29 0.07 0.01 0.00 0.00 0.00 0.00 0.00 0.01 0.01 0.00 0.00 0.02 0.02 0.03 0.02 0.06 0.10 0.04 0.07 0.08 0.11 0.15 0.09 0.04 0.08 0.08 0.07 0.09
0.05 0.00 0.00 0.00 0.00 0.03 0.10 0.14 0.22 0.23 0.08 0.11 0.17 0.37 0.27 0.28 0.24 0.11 0.02 0.00 0.00 0.00 0.00 0.00 0.00 0.00 0.00 0.00 0.00 0.00 0.00 0.01 0.01 0.01 0.01 0.03 0.08 0.09 0.07 0.07 0.14 0.09 0.09 0.12
0.07 0.04 0.03 0.00 0.00 0.00 0.02 0.07 0.08 0.12 0.16 0.23 0.15 0.25 0.30 0.09 0.22 0.20 0.13 0.05 0.02 0.02 0.01 0.00 0.00 0.00 0.00 0.00 0.00 0.00 0.00 0.00 0.00 0.00 0.01 0.02 0.03 0.01 0.03 0.07 0.09 0.10 0.11 0.12
0.06 0.10 0.04 0.01 0.00 0.00 0.03 0.03 0.04 0.06 0.11 0.12 0.09 0.13 0.19 0.08 0.10 0.14 0.09 0.08 0.04 0.01 0.00 0.00 0.00 0.00 0.00 0.00 0.00 0.00 0.00 0.00 0.00 0.00 0.00 0.01 0.01 0.01 0.02 0.03 0.06 0.09 0.10 0.13
0.08 0.06 0.02 0.00 0.00 0.00 0.00 0.04 0.01 0.01 0.07 0.13 0.04 0.04 0.16 0.20 0.22 0.18 0.09 0.05 0.01 0.00 0.00 0.00 0.00 0.00 0.00 0.00 0.00 0.00 0.00 0.00 0.00 0.00 0.00 0.01 0.01 0.01 0.02 0.04 0.05 0.07 0.07 0.08
0.06 0.06 0.02 0.00 0.00 0.00 0.05 0.12 0.01 0.00 0.01 0.08 0.22 0.12 0.18 0.17 0.22 0.19 0.04 0.00 0.00 0.00 0.00 0.00 0.00 0.00 0.00 0.00 0.00 0.00 0.00 0.00 0.02 0.02 0.03 0.04 0.02 0.01 0.02 0.02 0.03 0.05 0.07 0.08
0.05 0.08 0.03 0.00 0.01 0.06 0.16 0.05 0.02 0.01 0.01 0.02 0.10 0.04 0.06 0.01 0.02 0.03 0.01 0.00 0.00 0.00 0.00 0.00 0.00 0.00 0.00 0.00 0.00 0.00 0.01 0.03 0.05 0.06 0.08 0.06 0.05 0.07 0.07 0.06 0.08 0.09 0.09 0.11
0.01 0.01 0.05 0.07 0.08 0.07 0.03 0.10 0.09 0.26 0.24 0.18 0.13 0.18 0.20 0.12 0.07 0.04 0.00 0.00 0.00 0.00 0.00 0.00 0.00 0.00 0.00 0.00 0.00 0.01 0.03 0.06 0.08 0.09 0.06 0.04 0.07 0.10 0.12 0.11 0.13 0.15 0.17 0.21
0.32 0.19 0.10 0.21 0.19 0.04 0.00 0.01 0.02 0.10 0.56 0.72 0.56 0.45 0.40 0.26 0.09 0.01 0.00 0.01 0.00 0.00 0.00 0.00 0.00 0.00 0.00 0.01 0.02 0.02 0.03 0.08 0.07 0.06 0.09 0.05 0.09 0.11 0.11 0.12 0.16 0.21 0.29 0.35
0.37 0.44 0.29 0.33 0.50 0.25 0.09 0.06 0.03 0.01 0.02 0.12 0.11 0.08 0.06 0.07 0.07 0.06 0.05 0.03 0.02 0.01 0.02 0.03 0.04 0.05 0.05 0.06 0.09 0.12 0.10 0.11 0.11 0.11 0.12 0.12 0.15 0.23 0.21 0.32 0.40 0.41 0.47 0.49
0.48 0.79 0.90 0.85 0.42 0.34 0.40 0.22 0.06 0.01 0.00 0.05 0.10 0.07 0.05 0.05 0.07 0.11 0.16 0.19 0.15 0.14 0.11 0.11 0.13 0.18 0.19 0.18 0.16 0.17 0.16 0.18 0.22 0.17 0.18 0.18 0.18 0.28 0.47 0.52 0.51 0.58 0.66 0.67
0.70 0.75 0.84 0.70 0.33 0.15 0.11 0.15 0.16 0.12 0.10 0.06 0.03 0.02 0.03 0.07 0.06 0.07 0.14 0.22 0.33 0.34 0.31 0.32 0.35 0.38 0.37 0.37 0.32 0.31 0.30 0.27 0.29 0.30 0.32 0.33 0.35 0.35 0.46 0.65 0.71 0.86 0.94 0.98
0.36 0.31 0.10 0.08 0.08 0.04 0.01 0.00 0.00 0.01 0.02 0.02 0.01 0.01 0.01 0.05 0.06 0.08 0.12 0.15 0.16 0.22 0.36 0.46 0.53 0.68 0.85 0.88 0.87 0.92 0.97 0.97 0.89 0.87 0.91 1.03 1.15 1.25 1.29 1.28 1.26 1.35 1.35 1.21
0.05 0.06 0.07 0.04 0.01 0.00 0.00 0.00 0.00 0.00 0.00 0.00 0.01 0.01 0.02 0.04 0.05 0.06 0.07 0.10 0.14 0.16 0.25 0.34 0.45 0.74 0.97 1.14 1.31 1.49 1.59 1.69 1.66 1.60 1.52 1.33 1.16 1.03 0.99 0.96 0.95 1.00 0.99 0.91
0.00 0.00 0.01 0.02 0.02 0.01 0.00 0.00 0.00 0.01 0.01 0.01 0.03 0.04 0.04 0.04 0.06 0.09 0.10 0.09 0.08 0.15 0.21 0.22 0.29 0.53 0.59 0.65 0.71 0.75 0.76 0.74 0.66 0.62 0.57 0.52 0.49 0.46 0.45 0.42 0.39 0.38 0.36 0.37
0.01 0.02 0.02 0.03 0.02 0.01 0.02 0.03 0.02 0.03 0.04 0.05 0.08 0.08 0.06 0.06 0.07 0.12 0.21 0.27 0.28 0.32 0.33 0.31 0.46 0.48 0.43 0.37 0.29 0.30 0.30 0.31 0.30 0.27 0.28 0.26 0.24 0.21 0.18 0.15 0.14 0.12 0.13 0.08
0.03 0.06 0.07 0.09 0.08 0.05 0.06 0.07 0.07 0.08 0.10 0.11 0.13 0.17 0.19 0.21 0.26 0.29 0.32 0.28 0.19 0.16 0.22 0.28 0.26 0.21 0.18 0.16 0.13 0.12 0.09 0.08 0.07 0.07 0.06 0.05 0.05 0.05 0.04 0.04 0.03 0.03 0.03 0.02
0.04 0.06 0.08 0.09 0.10 0.10 0.11 0.12 0.13 0.14 0.14 0.14 0.14 0.19 0.20 0.20 0.18 0.18 0.18 0.11 0.09 0.07 0.15 0.10 0.06 0.03 0.03 0.02 0.01 0.01 0.01 0.01 0.01 0.01 0.01 0.01 0.01 0.02 0.01 0.01 0.01 0.01 0.01 0.00
0.12 0.12 0.12 0.12 0.12 0.11 0.11 0.14 0.13 0.12 0.16 0.15 0.13 0.12 0.12 0.15 0.15 0.14 0.10 0.08 0.09 0.10 0.08 0.05 0.02 0.01 0.01 0.00 0.00 0.00 0.00 0.00 0.00 0.00 0.00 0.00 0.00 0.01 0.01 0.00 0.01 0.01 0.01 0.01
0.10 0.10 0.09 0.09 0.10 0.11 0.11 0.14 0.10 0.11 0.15 0.13 0.10 0.11 0.10 0.11 0.10 0.08 0.04 0.03 0.06 0.03 0.01 0.00 0.00 0.00 0.00 0.00 0.00 0.00 0.00 0.00 0.00 0.00 0.00 0.00 0.00 0.00 0.00 0.00 0.01 0.01 0.01 0.01
0.11 0.10 0.11 0.11 0.09 0.11 0.14 0.14 0.11 0.12 0.12 0.11 0.10 0.10 0.07 0.07 0.05 0.03 0.02 0.02 0.01 0.00 0.00 0.00 0.00 0.00 0.00 0.00 0.00 0.00 0.00 0.00 0.00 0.00 0.00 0.00 0.00 0.00 0.00 0.01 0.01 0.01 0.01 0.01
0.15 0.14 0.14 0.14 0.13 0.13 0.14 0.12 0.11 0.09 0.08 0.06 0.05 0.04 0.02 0.01 0.01 0.00 0.00 0.00 0.00 0.00 0.00 0.00 0.00 0.00 0.00 0.00 0.00 0.00 0.00 0.00 0.00 0.00 0.00 0.00 0.00 0.00 0.00 0.00 0.01 0.01 0.01 0.00
0.14 0.14 0.12 0.10 0.08 0.05 0.03 0.03 0.01 0.01 0.00 0.00 0.00 0.00 0.00 0.00 0.01 0.00 0.00 0.00 0.00 0.00 0.00 0.00 0.00 0.00 0.00 0.00 0.00 0.00 0.00 0.00 0.01 0.01 0.00 0.00 0.01 0.01 0.01 0.00 0.00 0.01 0.01 0.00
0.10 0.08 0.05 0.02 0.00 0.00 0.00 0.00 0.00 0.00 0.00 0.00 0.00 0.00 0.00 0.00 0.01 0.01 0.00 0.00 0.00 0.00 0.00 0.00 0.00 0.00 0.00 0.00 0.00 0.00 0.01 0.00 0.00 0.00 0.00 0.01 0.01 0.01 0.01 0.00 0.00 0.00 0.00 0.00
0.03 0.02 0.01 0.00 0.00 0.00 0.00 0.00 0.01 0.01 0.00 0.01 0.01 0.01 0.01 0.01 0.00 0.00 0.00 0.00 0.00 0.00 0.00 0.00 0.00 0.00 0.01 0.00 0.00 0.00 0.00 0.00 0.00 0.00 0.00 0.01 0.00 0.01 0.00 0.00 0.00 0.00 0.00 0.00
0.00 0.00 0.00 0.00 0.00 0.00 0.00 0.01 0.02 0.02 0.01 0.01 0.01 0.02 0.01 0.01 0.00 0.00 0.00 0.00 0.00 0.00 0.01 0.01 0.01 0.01 0.01 0.00 0.00 0.00 0.00 0.01 0.00 0.00 0.00 0.00 0.00 0.01 0.00 0.00 0.00 0.00 0.00 0.00

GFSNGP_prec_precacc24_075.txt.gz
Total_Precipitation_Accumulation
0.00 0.00 0.03 0.08 0.08 0.07 0.16 0.23 0.31 0.10 0.12 0.30 0.78 0.83 0.41 0.05 0.00 0.01 0.02 0.03 0.08 0.09 0.08 0.10 0.13 0.16 0.15 0.13 0.11 0.12 0.11 0.06 0.09 0.07 0.07 0.07 0.04 0.03 0.02 0.01 0.00 0.00 0.00 0.00
0.00 0.00 0.00 0.01 0.01 0.11 0.13 0.08 0.09 0.06 0.12 0.21 0.41 0.55 0.49 0.34 0.09 0.01 0.00 0.00 0.01 0.01 0.02 0.03 0.05 0.03 0.02 0.03 0.04 0.03 0.02 0.06 0.11 0.04 0.08 0.09 0.13 0.16 0.10 0.04 0.08 0.04 0.03 0.03
0.05 0.00 0.00 0.00 0.00 0.03 0.10 0.14 0.23 0.23 0.08 0.12 0.18 0.38 0.29 0.32 0.25 0.13 0.03 0.00 0.00 0.00 0.00 0.00 0.00 0.00 0.00 0.00 0.01 0.03 0.03 0.01 0.01 0.01 0.01 0.03 0.08 0.09 0.08 0.08 0.13 0.09 0.11 0.11
0.07 0.04 0.03 0.00 0.00 0.00 0.03 0.07 0.08 0.12 0.16 0.27 0.24 0.40 0.37 0.11 0.22 0.22 0.21 0.13 0.07 0.03 0.01 0.00 0.00 0.00 0.00 0.00 0.00 0.00 0.00 0.00 0.00 0.00 0.01 0.02 0.03 0.01 0.03 0.06 0.06 0.08 0.09 0.09
0.06 0.10 0.04 0.01 0.00 0.00 0.03 0.03 0.04 0.06 0.12 0.12 0.11 0.19 0.31 0.22 0.13 0.17 0.19 0.23 0.18 0.06 0.03 0.01 0.00 0.00 0.00 0.00 0.00 0.00 0.00 0.00 0.00 0.00 0.00 0.01 0.01 0.01 0.02 0.02 0.03 0.04 0.06 0.09
0.06 0.05 0.02 0.00 0.00 0.00 0.00 0.04 0.01 0.01 0.07 0.13 0.05 0.07 0.20 0.33 0.35 0.33 0.19 0.08 0.04 0.03 0.02 0.01 0.00 0.00 0.00 0.00 0.00 0.00 0.00 0.00 0.00 0.00 0.00 0.00 0.00 0.00 0.01 0.02 0.02 0.04 0.04 0.05
0.03 0.05 0.02 0.00 0.00 0.00 0.05 0.12 0.01 0.00 0.01 0.08 0.24 0.22 0.40 0.38 0.49 0.49 0.16 0.02 0.00 0.00 0.01 0.01 0.00 0.00 0.00 0.00 0.00 0.00 0.00 0.00 0.00 0.00 0.00 0.01 0.01 0.01 0.01 0.01 0.02 0.03 0.05 0.06
0.05 0.07 0.03 0.00 0.01 0.06 0.16 0.05 0.02 0.01 0.01 0.02 0.13 0.11 0.29 0.20 0.24 0.19 0.11 0.00 0.00 0.00 0.00 0.00 0.00 0.00 0.00 0.00 0.00 0.00 0.00 0.00 0.00 0.01 0.03 0.04 0.05 0.07 0.07 0.05 0.06 0.06 0.07 0.09
0.01 0.01 0.05 0.07 0.08 0.08 0.04 0.11 0.10 0.27 0.30 0.28 0.25 0.34 0.36 0.33 0.29 0.30 0.08 0.00 0.00 0.00 0.00 0.00 0.00 0.00 0.00 0.00 0.00 0.00 0.00 0.00 0.01 0.04 0.04 0.04 0.07 0.09 0.10 0.09 0.09 0.10 0.14 0.19
0.52 0.32 0.11 0.21 0.19 0.05 0.02 0.03 0.03 0.10 0.57 0.87 0.91 0.80 0.73 0.63 0.38 0.20 0.06 0.01 0.00 0.00 0.00 0.01 0.00 0.00 0.00 0.00 0.00 0.00 0.01 0.05 0.05 0.06 0.09 0.05 0.08 0.10 0.10 0.10 0.14 0.19 0.28 0.35
0.55 0.56 0.33 0.36 0.52 0.28 0.13 0.10 0.11 0.08 0.06 0.18 0.26 0.27 0.14 0.12 0.14 0.10 0.06 0.03 0.02 0.01 0.02 0.04 0.04 0.05 0.05 0.05 0.08 0.11 0.09 0.11 0.11 0.11 0.12 0.12 0.16 0.23 0.21 0.33 0.40 0.41 0.47 0.50
0.54 0.84 0.94 0.92 0.49 0.41 0.44 0.28 0.16 0.06 0.04 0.04 0.07 0.10 0.09 0.07 0.08 0.10 0.15 0.18 0.15 0.14 0.11 0.10 0.11 0.16 0.18 0.17 0.16 0.17 0.16 0.18 0.22 0.17 0.18 0.18 0.18 0.28 0.47 0.52 0.51 0.58 0.65 0.66
0.77 0.83 0.90 0.76 0.38 0.20 0.14 0.18 0.19 0.14 0.10 0.06 0.03 0.01 0.02 0.03 0.05 0.06 0.12 0.21 0.33 0.34 0.31 0.31 0.34 0.37 0.36 0.37 0.32 0.31 0.30 0.27 0.29 0.30 0.32 0.33 0.35 0.34 0.44 0.60 0.64 0.79 0.89 0.93
0.46 0.40 0.18 0.14 0.11 0.05 0.01 0.00 0.00 0.01 0.02 0.02 0.01 0.00 0.00 0.01 0.03 0.07 0.12 0.15 0.16 0.22 0.35 0.45 0.51 0.63 0.79 0.83 0.84 0.88 0.91 0.92 0.85 0.82 0.86 0.97 1.09 1.19 1.24 1.25 1.22 1.30 1.31 1.19
0.05 0.03 0.02 0.01 0.01 0.00 0.00 0.00 0.00 0.00 0.00 0.00 0.01 0.01 0.03 0.04 0.05 0.06 0.08 0.11 0.14 0.15 0.22 0.29 0.35 0.54 0.68 0.82 0.98 1.13 1.27 1.40 1.43 1.43 1.40 1.25 1.11 1.00 0.96 0.94 0.93 0.96 0.94 0.86
0.00 0.00 0.00 0.01 0.01 0.01 0.00 0.00 0.00 0.01 0.01 0.01 0.03 0.05 0.05 0.05 0.06 0.10 0.11 0.10 0.08 0.12 0.16 0.15 0.19 0.37 0.36 0.38 0.43 0.51 0.57 0.60 0.57 0.56 0.53 0.48 0.46 0.43 0.42 0.39 0.37 0.35 0.33 0.34
0.01 0.02 0.02 0.02 0.02 0.01 0.02 0.02 0.02 0.03 0.04 0.05 0.08 0.08 0.06 0.06 0.07 0.11 0.17 0.21 0.22 0.25 0.25 0.24 0.33 0.31 0.27 0.25 0.22 0.24 0.25 0.25 0.24 0.22 0.23 0.22 0.20 0.18 0.16 0.13 0.12 0.10 0.11 0.07
0.02 0.04 0.03 0.03 0.04 0.03 0.04 0.05 0.06 0.06 0.08 0.09 0.09 0.08 0.08 0.09 0.16 0.22 0.27 0.23 0.15 0.12 0.14 0.17 0.15 0.12 0.11 0.10 0.08 0.07 0.06 0.05 0.04 0.05 0.04 0.04 0.04 0.04 0.04 0.03 0.02 0.02 0.01 0.00
0.03 0.03 0.05 0.04 0.04 0.04 0.06 0.08 0.10 0.11 0.11 0.11 0.10 0.13 0.13 0.13 0.13 0.13 0.13 0.09 0.07 0.05 0.09 0.05 0.03 0.01 0.01 0.00 0.00 0.00 0.00 0.00 0.00 0.00 0.00 0.00 0.00 0.01 0.01 0.01 0.01 0.01 0.00 0.00
0.05 0.06 0.06 0.06 0.07 0.07 0.08 0.11 0.10 0.09 0.12 0.11 0.10 0.10 0.09 0.10 0.10 0.09 0.06 0.05 0.05 0.05 0.03 0.01 0.00 0.00 0.00 0.00 0.00 0.00 0.00 0.00 0.00 0.00 0.00 0.00 0.00 0.01 0.01 0.00 0.01 0.01 0.01 0.01
0.06 0.06 0.06 0.06 0.07 0.09 0.08 0.10 0.08 0.08 0.10 0.09 0.07 0.08 0.07 0.07 0.06 0.05 0.02 0.01 0.02 0.00 0.00 0.00 0.00 0.00 0.00 0.00 0.00 0.00 0.00 0.00 0.00 0.00 0.00 0.00 0.00 0.00 0.00 0.00 0.01 0.01 0.01 0.01
0.07 0.07 0.08 0.08 0.07 0.08 0.11 0.10 0.08 0.08 0.08 0.07 0.06 0.06 0.05 0.04 0.02 0.01 0.00 0.00 0.00 0.00 0.00 0.00 0.00 0.00 0.00 0.00 0.00 0.00 0.00 0.00 0.00 0.00 0.00 0.00 0.00 0.00 0.00 0.01 0.01 0.01 0.01 0.01
0.10 0.09 0.10 0.09 0.09 0.09 0.09 0.06 0.06 0.04 0.03 0.02 0.02 0.02 0.01 0.00 0.00 0.00 0.00 0.00 0.00 0.00 0.00 0.00 0.00 0.00 0.00 0.00 0.00 0.00 0.00 0.00 0.00 0.00 0.00 0.00 0.00 0.00 0.00 0.00 0.01 0.01 0.01 0.00
0.10 0.10 0.08 0.07 0.05 0.03 0.02 0.02 0.00 0.00 0.00 0.00 0.00 0.00 0.00 0.00 0.00 0.00 0.00 0.00 0.00 0.00 0.00 0.00 0.00 0.00 0.00 0.00 0.00 0.00 0.00 0.00 0.01 0.01 0.00 0.00 0.01 0.01 0.01 0.00 0.00 0.01 0.01 0.00
0.09 0.07 0.04 0.01 0.00 0.00 0.00 0.00 0.00 0.00 0.00 0.00 0.00 0.00 0.00 0.00 0.00 0.00 0.00 0.00 0.00 0.00 0.00 0.00 0.00 0.00 0.00 0.00 0.00 0.00 0.01 0.00 0.00 0.00 0.00 0.01 0.01 0.01 0.01 0.00 0.00 0.00 0.00 0.00
0.03 0.02 0.01 0.00 0.00 0.00 0.00 0.00 0.01 0.01 0.00 0.01 0.01 0.01 0.01 0.00 0.00 0.00 0.00 0.00 0.00 0.00 0.00 0.00 0.00 0.00 0.01 0.00 0.00 0.00 0.00 0.00 0.00 0.00 0.00 0.01 0.00 0.01 0.00 0.00 0.00 0.00 0.00 0.00
0.00 0.00 0.00 0.00 0.00 0.00 0.00 0.01 0.02 0.02 0.02 0.02 0.01 0.01 0.01 0.01 0.00 0.00 0.00 0.00 0.00 0.00 0.01 0.01 0.01 0.01 0.01 0.00 0.00 0.00 0.00 0.01 0.00 0.00 0.01 0.01 0.00 0.01 0.00 0.00 0.00 0.00 0.00 0.00

GFSNGP_prec_precacc24_078.txt.gz
Total_Precipitation_Accumulation
0.01 0.02 0.03 0.08 0.08 0.07 0.16 0.23 0.31 0.10 0.13 0.31 0.78 0.86 0.53 0.08 0.03 0.07 0.08 0.06 0.13 0.12 0.12 0.13 0.16 0.19 0.21 0.20 0.18 0.16 0.12 0.07 0.10 0.08 0.08 0.06 0.04 0.04 0.02 0.01 0.01 0.00 0.00 0.01
0.01 0.01 0.01 0.01 0.01 0.11 0.13 0.08 0.09 0.06 0.12 0.21 0.42 0.57 0.51 0.42 0.19 0.10 0.10 0.06 0.06 0.06 0.05 0.06 0.07 0.05 0.06 0.07 0.08 0.04 0.02 0.06 0.11 0.05 0.09 0.11 0.14 0.16 0.10 0.05 0.08 0.05 0.04 0.03
0.06 0.00 0.00 0.00 0.00 0.03 0.10 0.14 0.23 0.23 0.08 0.13 0.19 0.40 0.30 0.34 0.29 0.19 0.17 0.04 0.03 0.03 0.03 0.03 0.02 0.02 0.02 0.01 0.01 0.03 0.03 0.02 0.01 0.01 0.01 0.04 0.08 0.10 0.08 0.09 0.14 0.10 0.12 0.12
0.07 0.04 0.03 0.00 0.00 0.00 0.03 0.07 0.08 0.12 0.18 0.28 0.25 0.55 0.56 0.16 0.26 0.27 0.28 0.28 0.09 0.03 0.01 0.00 0.00 0.00 0.00 0.00 0.00 0.00 0.00 0.01 0.01 0.01 0.01 0.02 0.03 0.01 0.02 0.06 0.07 0.08 0.08 0.09
0.05 0.09 0.04 0.01 0.00 0.00 0.03 0.03 0.04 0.07 0.12 0.13 0.13 0.23 0.54 0.36 0.22 0.26 0.27 0.32 0.26 0.08 0.06 0.02 0.00 0.00 0.00 0.00 0.00 0.00 0.00 0.00 0.00 0.00 0.00 0.01 0.01 0.01 0.02 0.02 0.03 0.04 0.06 0.08
0.05 0.05 0.02 0.01 0.00 0.00 0.00 0.04 0.01 0.01 0.07 0.14 0.05 0.09 0.22 0.37 0.46 0.48 0.29 0.18 0.11 0.04 0.03 0.03 0.03 0.01 0.00 0.00 0.01 0.01 0.01 0.00 0.00 0.00 0.00 0.00 0.00 0.00 0.01 0.02 0.02 0.04 0.02 0.03
0.03 0.05 0.02 0.00 0.00 0.00 0.05 0.12 0.01 0.00 0.01 0.08 0.24 0.23 0.51 0.60 0.62 0.68 0.21 0.06 0.04 0.02 0.02 0.02 0.01 0.01 0.00 0.00 0.00 0.00 0.01 0.01 0.00 0.00 0.00 0.00 0.01 0.00 0.01 0.01 0.02 0.03 0.04 0.05
0.05 0.07 0.03 0.00 0.00 0.06 0.16 0.05 0.02 0.01 0.01 0.03 0.15 0.15 0.39 0.45 0.54 0.52 0.28 0.03 0.00 0.00 0.00 0.00 0.00 0.00 0.00 0.00 0.00 0.00 0.00 0.00 0.00 0.00 0.00 0.00 0.01 0.02 0.04 0.04 0.05 0.06 0.06 0.08
0.02 0.02 0.05 0.07 0.07 0.07 0.05 0.11 0.10 0.27 0.30 0.29 0.30 0.52 0.57 0.52 0.56 0.62 0.28 0.01 0.00 0.00 0.00 0.00 0.00 0.00 0.00 0.00 0.00 0.00 0.00 0.00 0.00 0.00 0.00 0.00 0.03 0.07 0.09 0.08 0.09 0.10 0.12 0.15
0.54 0.41 0.16 0.22 0.20 0.05 0.03 0.04 0.04 0.11 0.57 0.91 1.01 0.95 0.94 0.88 0.61 0.43 0.23 0.02 0.00 0.00 0.00 0.01 0.01 0.00 0.00 0.00 0.00 0.00 0.01 0.01 0.01 0.01 0.03 0.02 0.07 0.10 0.09 0.09 0.12 0.17 0.25 0.31
0.69 0.74 0.48 0.41 0.55 0.29 0.14 0.12 0.13 0.14 0.12 0.25 0.35 0.37 0.21 0.18 0.22 0.21 0.19 0.06 0.01 0.01 0.01 0.01 0.02 0.03 0.03 0.03 0.03 0.06 0.06 0.07 0.09 0.09 0.11 0.12 0.16 0.23 0.21 0.31 0.37 0.39 0.46 0.48
0.65 0.91 1.03 0.97 0.52 0.43 0.46 0.30 0.22 0.09 0.06 0.07 0.11 0.14 0.16 0.11 0.07 0.05 0.03 0.04 0.10 0.11 0.09 0.09 0.07 0.09 0.11 0.11 0.10 0.12 0.14 0.16 0.21 0.17 0.17 0.18 0.17 0.25 0.42 0.48 0.48 0.57 0.64 0.65
0.82 0.88 0.92 0.77 0.40 0.22 0.16 0.20 0.20 0.14 0.10 0.06 0.03 0.02 0.03 0.04 0.05 0.04 0.02 0.02 0.08 0.15 0.17 0.26 0.33 0.36 0.35 0.33 0.28 0.27 0.28 0.26 0.27 0.28 0.30 0.31 0.33 0.33 0.42 0.55 0.60 0.74 0.84 0.89
0.53 0.45 0.21 0.16 0.13 0.07 0.02 0.01 0.01 0.01 0.02 0.02 0.01 0.00 0.00 0.01 0.01 0.02 0.04 0.05 0.05 0.09 0.17 0.28 0.37 0.50 0.65 0.67 0.62 0.65 0.75 0.76 0.68 0.63 0.67 0.79 0.92 1.05 1.13 1.15 1.15 1.22 1.24 1.14
0.14 0.07 0.04 0.02 0.01 0.00 0.00 0.00 0.00 0.00 0.00 0.00 0.01 0.01 0.01 0.03 0.04 0.05 0.05 0.03 0.03 0.06 0.12 0.20 0.29 0.44 0.52 0.59 0.66 0.76 0.85 0.99 1.05 1.09 1.11 1.05 0.97 0.91 0.90 0.88 0.87 0.90 0.89 0.82
0.03 0.01 0.00 0.00 0.00 0.00 0.00 0.00 0.00 0.01 0.01 0.01 0.01 0.02 0.02 0.04 0.05 0.06 0.06 0.06 0.05 0.09 0.11 0.11 0.13 0.26 0.25 0.27 0.29 0.33 0.38 0.41 0.42 0.44 0.42 0.39 0.38 0.37 0.36 0.34 0.32 0.31 0.30 0.31
0.02 0.02 0.01 0.01 0.01 0.01 0.01 0.01 0.01 0.02 0.03 0.04 0.06 0.06 0.05 0.04 0.04 0.06 0.08 0.09 0.12 0.16 0.15 0.14 0.21 0.21 0.17 0.16 0.14 0.16 0.16 0.17 0.18 0.18 0.20 0.19 0.18 0.16 0.14 0.12 0.11 0.10 0.10 0.06
0.02 0.03 0.02 0.02 0.02 0.01 0.02 0.02 0.02 0.03 0.04 0.05 0.05 0.05 0.05 0.06 0.08 0.09 0.09 0.09 0.08 0.08 0.10 0.13 0.12 0.10 0.08 0.07 0.06 0.05 0.04 0.04 0.03 0.04 0.04 0.04 0.04 0.04 0.03 0.03 0.02 0.01 0.01 0.00
0.02 0.02 0.03 0.02 0.02 0.01 0.03 0.04 0.05 0.06 0.07 0.08 0.07 0.09 0.10 0.09 0.09 0.09 0.08 0.06 0.05 0.04 0.05 0.02 0.01 0.01 0.00 0.00 0.00 0.00 0.00 0.00 0.00 0.00 0.00 0.00 0.00 0.01 0.00 0.01 0.01 0.00 0.00 0.00
0.02 0.03 0.03 0.03 0.03 0.03 0.05 0.06 0.06 0.06 0.08 0.07 0.07 0.07 0.06 0.07 0.07 0.06 0.04 0.04 0.03 0.02 0.01 0.00 0.00 0.00 0.00 0.00 0.00 0.00 0.00 0.00 0.00 0.00 0.00 0.00 0.00 0.01 0.00 0.00 0.01 0.01 0.01 0.01
0.04 0.03 0.03 0.03 0.04 0.05 0.05 0.06 0.05 0.05 0.06 0.05 0.04 0.05 0.04 0.03 0.02 0.01 0.00 0.00 0.01 0.00 0.00 0.00 0.00 0.00 0.00 0.00 0.00 0.00 0.00 0.00 0.00 0.00 0.01 0.00 0.00 0.01 0.01 0.01 0.01 0.01 0.01 0.01
0.05 0.05 0.05 0.05 0.04 0.06 0.07 0.06 0.04 0.04 0.04 0.04 0.03 0.03 0.01 0.01 0.00 0.00 0.00 0.00 0.00 0.00 0.00 0.00 0.00 0.00 0.00 0.00 0.00 0.00 0.00 0.00 0.00 0.00 0.00 0.00 0.00 0.00 0.01 0.01 0.01 0.01 0.01 0.01
0.07 0.06 0.06 0.06 0.05 0.05 0.04 0.03 0.02 0.01 0.01 0.00 0.00 0.00 0.00 0.00 0.00 0.00 0.00 0.00 0.00 0.00 0.00 0.00 0.00 0.00 0.00 0.00 0.00 0.00 0.01 0.01 0.01 0.00 0.00 0.00 0.00 0.01 0.00 0.00 0.01 0.01 0.01 0.01
0.07 0.06 0.05 0.04 0.02 0.01 0.01 0.00 0.00 0.00 0.00 0.00 0.00 0.00 0.00 0.00 0.00 0.00 0.00 0.00 0.00 0.00 0.00 0.00 0.00 0.00 0.00 0.00 0.00 0.00 0.00 0.00 0.01 0.01 0.01 0.00 0.01 0.01 0.01 0.00 0.00 0.01 0.01 0.01
0.06 0.05 0.03 0.01 0.00 0.00 0.00 0.00 0.00 0.00 0.00 0.00 0.00 0.00 0.00 0.00 0.00 0.00 0.00 0.00 0.00 0.00 0.00 0.00 0.00 0.00 0.00 0.00 0.00 0.01 0.01 0.00 0.00 0.00 0.01 0.01 0.01 0.01 0.01 0.00 0.00 0.01 0.01 0.01
0.03 0.01 0.01 0.00 0.00 0.00 0.00 0.00 0.01 0.01 0.01 0.01 0.01 0.01 0.01 0.00 0.00 0.00 0.01 0.00 0.00 0.00 0.01 0.01 0.00 0.00 0.01 0.00 0.00 0.00 0.01 0.00 0.00 0.00 0.00 0.01 0.00 0.01 0.00 0.00 0.00 0.00 0.01 0.00
0.00 0.00 0.00 0.00 0.00 0.00 0.00 0.01 0.02 0.03 0.02 0.02 0.01 0.01 0.01 0.01 0.01 0.00 0.01 0.00 0.01 0.00 0.01 0.01 0.01 0.01 0.01 0.01 0.00 0.00 0.01 0.01 0.00 0.00 0.01 0.01 0.01 0.01 0.01 0.00 0.00 0.00 0.00 0.00

GFSNGP_prec_precacc24_084.txt.gz
Total_Precipitation_Accumulation
0.04 0.02 0.08 0.16 0.16 0.12 0.21 0.25 0.31 0.10 0.12 0.31 0.80 0.93 0.53 0.09 0.05 0.09 0.13 0.12 0.20 0.19 0.19 0.20 0.23 0.27 0.33 0.33 0.29 0.23 0.19 0.14 0.14 0.09 0.08 0.08 0.06 0.03 0.02 0.02 0.02 0.02 0.01 0.02
0.06 0.03 0.03 0.03 0.03 0.14 0.20 0.14 0.11 0.05 0.14 0.23 0.52 0.64 0.51 0.42 0.20 0.16 0.17 0.15 0.15 0.16 0.14 0.15 0.14 0.13 0.17 0.22 0.18 0.12 0.06 0.09 0.13 0.07 0.10 0.12 0.14 0.17 0.11 0.07 0.09 0.06 0.06 0.05
0.13 0.05 0.04 0.02 0.00 0.03 0.11 0.16 0.24 0.27 0.14 0.15 0.21 0.42 0.32 0.35 0.29 0.27 0.33 0.17 0.15 0.16 0.14 0.14 0.11 0.09 0.13 0.15 0.13 0.12 0.09 0.06 0.05 0.04 0.04 0.06 0.10 0.11 0.11 0.11 0.16 0.11 0.14 0.14
0.24 0.11 0.16 0.01 0.00 0.00 0.03 0.10 0.12 0.13 0.19 0.29 0.26 0.55 0.61 0.27 0.32 0.38 0.47 0.59 0.27 0.17 0.14 0.11 0.10 0.08 0.10 0.12 0.14 0.12 0.07 0.07 0.06 0.06 0.08 0.07 0.08 0.08 0.09 0.11 0.11 0.11 0.11 0.10
0.32 0.32 0.13 0.01 0.00 0.00 0.05 0.18 0.05 0.07 0.12 0.13 0.13 0.24 0.58 0.54 0.33 0.37 0.47 0.63 0.91 0.42 0.22 0.19 0.09 0.06 0.08 0.11 0.13 0.14 0.16 0.10 0.07 0.04 0.07 0.09 0.07 0.05 0.07 0.10 0.12 0.11 0.11 0.11
0.20 0.38 0.24 0.16 0.01 0.00 0.00 0.12 0.02 0.01 0.07 0.14 0.05 0.10 0.25 0.42 0.53 0.61 0.55 0.45 0.45 0.70 0.61 0.43 0.32 0.12 0.05 0.09 0.09 0.14 0.10 0.11 0.08 0.09 0.04 0.02 0.02 0.02 0.02 0.03 0.06 0.10 0.05 0.05
0.16 0.26 0.27 0.11 0.02 0.00 0.05 0.11 0.01 0.00 0.01 0.08 0.24 0.24 0.54 0.66 0.75 0.87 0.41 0.30 0.33 0.28 0.39 0.58 0.60 0.58 0.35 0.13 0.09 0.06 0.12 0.10 0.10 0.12 0.11 0.04 0.02 0.01 0.01 0.01 0.02 0.03 0.04 0.05
0.12 0.16 0.10 0.00 0.01 0.03 0.09 0.04 0.02 0.01 0.01 0.03 0.15 0.18 0.45 0.55 0.71 0.73 0.48 0.21 0.17 0.21 0.17 0.16 0.16 0.22 0.43 0.48 0.36 0.22 0.13 0.11 0.09 0.05 0.10 0.13 0.05 0.03 0.04 0.03 0.04 0.05 0.06 0.07
0.20 0.19 0.08 0.07 0.04 0.04 0.05 0.11 0.10 0.27 0.30 0.30 0.31 0.56 0.64 0.64 0.73 0.84 0.50 0.09 0.03 0.05 0.02 0.01 0.01 0.02 0.02 0.05 0.15 0.21 0.23 0.23 0.17 0.12 0.07 0.04 0.05 0.05 0.06 0.06 0.07 0.08 0.10 0.12
0.52 0.41 0.15 0.21 0.18 0.05 0.03 0.04 0.04 0.12 0.58 0.93 1.04 0.99 1.02 1.01 0.76 0.63 0.45 0.10 0.01 0.00 0.00 0.01 0.00 0.00 0.00 0.00 0.00 0.00 0.00 0.00 0.01 0.02 0.03 0.03 0.04 0.05 0.06 0.08 0.10 0.14 0.20 0.24
0.66 0.71 0.45 0.29 0.52 0.32 0.16 0.12 0.14 0.16 0.14 0.30 0.43 0.46 0.30 0.28 0.35 0.40 0.43 0.25 0.07 0.03 0.02 0.01 0.00 0.00 0.00 0.00 0.00 0.00 0.00 0.00 0.01 0.02 0.03 0.04 0.08 0.12 0.12 0.22 0.22 0.25 0.32 0.35
0.63 0.85 1.02 0.86 0.57 0.46 0.49 0.33 0.27 0.12 0.09 0.10 0.16 0.24 0.27 0.22 0.16 0.15 0.19 0.17 0.12 0.09 0.06 0.02 0.01 0.01 0.01 0.01 0.00 0.00 0.00 0.01 0.02 0.02 0.03 0.05 0.07 0.13 0.20 0.26 0.25 0.29 0.35 0.40
0.83 0.94 0.99 0.85 0.47 0.26 0.19 0.22 0.23 0.16 0.11 0.07 0.04 0.04 0.07 0.11 0.10 0.09 0.09 0.11 0.12 0.11 0.09 0.05 0.02 0.03 0.03 0.02 0.01 0.01 0.02 0.03 0.03 0.04 0.05 0.08 0.12 0.14 0.19 0.24 0.26 0.37 0.47 0.53
0.61 0.54 0.29 0.23 0.17 0.10 0.02 0.01 0.01 0.01 0.02 0.02 0.01 0.00 0.00 0.02 0.02 0.03 0.06 0.07 0.07 0.06 0.05 0.05 0.03 0.06 0.05 0.02 0.01 0.01 0.02 0.05 0.08 0.09 0.10 0.13 0.18 0.25 0.32 0.38 0.42 0.52 0.63 0.67
0.24 0.15 0.09 0.04 0.01 0.00 0.00 0.00 0.00 0.00 0.00 0.00 0.01 0.01 0.01 0.02 0.03 0.04 0.04 0.02 0.02 0.01 0.01 0.01 0.01 0.06 0.05 0.02 0.02 0.03 0.04 0.08 0.11 0.15 0.18 0.22 0.27 0.29 0.32 0.35 0.40 0.47 0.54 0.56
0.13 0.04 0.01 0.00 0.00 0.00 0.00 0.00 0.00 0.00 0.00 0.01 0.01 0.02 0.02 0.02 0.03 0.04 0.04 0.02 0.01 0.03 0.03 0.02 0.03 0.07 0.04 0.03 0.03 0.03 0.05 0.06 0.07 0.09 0.11 0.11 0.12 0.13 0.14 0.14 0.15 0.16 0.17 0.19
0.07 0.03 0.01 0.01 0.01 0.01 0.01 0.01 0.01 0.01 0.02 0.03 0.04 0.03 0.03 0.03 0.03 0.04 0.04 0.03 0.02 0.02 0.02 0.02 0.04 0.03 0.03 0.03 0.03 0.04 0.04 0.04 0.04 0.05 0.07 0.08 0.08 0.07 0.07 0.06 0.07 0.07 0.07 0.04
0.01 0.02 0.01 0.01 0.01 0.01 0.01 0.02 0.01 0.01 0.02 0.03 0.02 0.02 0.02 0.03 0.04 0.04 0.03 0.02 0.01 0.01 0.01 0.02 0.01 0.02 0.02 0.02 0.02 0.02 0.02 0.01 0.01 0.01 0.01 0.02 0.02 0.02 0.02 0.02 0.01 0.01 0.01 0.00
0.01 0.01 0.01 0.01 0.01 0.01 0.02 0.02 0.03 0.03 0.03 0.02 0.01 0.02 0.02 0.02 0.02 0.01 0.01 0.01 0.01 0.01 0.01 0.00 0.00 0.00 0.00 0.00 0.00 0.00 0.00 0.00 0.00 0.00 0.00 0.00 0.00 0.00 0.00 0.00 0.00 0.00 0.00 0.00
0.02 0.02 0.01 0.01 0.01 0.01 0.02 0.03 0.02 0.02 0.02 0.01 0.01 0.01 0.01 0.01 0.01 0.01 0.00 0.01 0.01 0.01 0.00 0.00 0.00 0.00 0.00 0.00 0.00 0.00 0.00 0.00 0.00 0.00 0.00 0.00 0.01 0.01 0.01 0.00 0.00 0.01 0.01 0.01
0.02 0.02 0.01 0.01 0.02 0.02 0.02 0.02 0.01 0.01 0.01 0.00 0.00 0.00 0.00 0.00 0.00 0.00 0.00 0.00 0.01 0.00 0.00 0.00 0.00 0.00 0.00 0.00 0.00 0.00 0.00 0.00 0.00 0.00 0.01 0.01 0.01 0.01 0.01 0.01 0.01 0.01 0.01 0.01
0.03 0.02 0.02 0.02 0.02 0.03 0.03 0.02 0.01 0.00 0.00 0.00 0.00 0.00 0.00 0.00 0.00 0.00 0.00 0.00 0.00 0.00 0.00 0.00 0.00 0.00 0.00 0.00 0.00 0.00 0.00 0.00 0.00 0.00 0.00 0.01 0.01 0.01 0.01 0.01 0.01 0.01 0.01 0.01
0.04 0.03 0.03 0.03 0.03 0.02 0.02 0.01 0.00 0.00 0.00 0.00 0.00 0.00 0.00 0.00 0.00 0.00 0.00 0.00 0.00 0.00 0.00 0.00 0.00 0.00 0.00 0.00 0.00 0.00 0.01 0.01 0.01 0.00 0.01 0.01 0.01 0.01 0.01 0.01 0.01 0.01 0.01 0.01
0.04 0.04 0.03 0.02 0.01 0.00 0.00 0.00 0.00 0.00 0.00 0.00 0.00 0.00 0.00 0.00 0.00 0.00 0.00 0.00 0.00 0.00 0.00 0.00 0.00 0.00 0.00 0.00 0.01 0.01 0.00 0.01 0.01 0.01 0.01 0.00 0.01 0.01 0.01 0.01 0.00 0.01 0.01 0.01
0.05 0.04 0.02 0.00 0.00 0.00 0.00 0.00 0.00 0.00 0.00 0.00 0.00 0.00 0.00 0.00 0.00 0.01 0.00 0.01 0.00 0.00 0.02 0.00 0.00 0.00 0.01 0.01 0.01 0.01 0.01 0.01 0.01 0.00 0.01 0.01 0.01 0.01 0.01 0.01 0.01 0.01 0.01 0.01
0.03 0.02 0.01 0.01 0.01 0.00 0.00 0.00 0.01 0.01 0.01 0.01 0.01 0.01 0.01 0.00 0.00 0.00 0.01 0.01 0.00 0.01 0.01 0.02 0.01 0.01 0.01 0.01 0.01 0.01 0.01 0.01 0.01 0.01 0.01 0.01 0.01 0.01 0.01 0.01 0.01 0.01 0.01 0.01
0.01 0.00 0.00 0.00 0.00 0.00 0.00 0.02 0.02 0.03 0.03 0.03 0.03 0.03 0.01 0.01 0.01 0.01 0.01 0.01 0.01 0.01 0.02 0.02 0.02 0.02 0.01 0.01 0.01 0.01 0.01 0.01 0.01 0.01 0.01 0.01 0.01 0.02 0.01 0.01 0.01 0.01 0.01 0.01

GFSNGP_prec_precacc24_087.txt.gz
Total_Precipitation_Accumulation
0.04 0.02 0.07 0.15 0.16 0.16 0.24 0.28 0.32 0.09 0.06 0.25 0.79 1.01 0.57 0.09 0.05 0.09 0.13 0.12 0.20 0.20 0.20 0.21 0.25 0.28 0.34 0.34 0.31 0.24 0.20 0.24 0.24 0.15 0.11 0.09 0.06 0.04 0.03 0.02 0.02 0.02 0.01 0.03
0.07 0.03 0.02 0.03 0.03 0.14 0.19 0.15 0.16 0.06 0.16 0.19 0.45 0.66 0.51 0.42 0.20 0.16 0.17 0.15 0.16 0.16 0.15 0.17 0.16 0.15 0.20 0.25 0.22 0.15 0.08 0.12 0.13 0.09 0.11 0.13 0.16 0.19 0.12 0.08 0.11 0.07 0.07 0.06
0.16 0.06 0.05 0.02 0.00 0.02 0.06 0.16 0.29 0.35 0.29 0.17 0.20 0.41 0.31 0.35 0.29 0.27 0.33 0.17 0.15 0.16 0.15 0.16 0.14 0.11 0.14 0.19 0.18 0.20 0.15 0.08 0.06 0.05 0.04 0.07 0.12 0.13 0.12 0.12 0.17 0.13 0.16 0.16
0.25 0.12 0.15 0.01 0.00 0.01 0.09 0.16 0.23 0.28 0.24 0.29 0.26 0.55 0.61 0.27 0.32 0.38 0.48 0.59 0.29 0.22 0.18 0.15 0.14 0.14 0.15 0.15 0.20 0.19 0.15 0.15 0.09 0.08 0.08 0.07 0.08 0.09 0.11 0.11 0.11 0.12 0.11 0.11
0.35 0.31 0.13 0.07 0.07 0.06 0.08 0.20 0.06 0.08 0.12 0.13 0.13 0.24 0.58 0.54 0.35 0.42 0.49 0.64 0.92 0.45 0.26 0.26 0.17 0.14 0.16 0.18 0.20 0.23 0.27 0.22 0.16 0.12 0.10 0.13 0.11 0.09 0.11 0.13 0.14 0.13 0.11 0.12
0.23 0.42 0.41 0.63 0.21 0.04 0.04 0.15 0.03 0.01 0.07 0.14 0.05 0.10 0.25 0.43 0.55 0.64 0.58 0.48 0.47 0.73 0.65 0.50 0.50 0.30 0.18 0.19 0.19 0.26 0.29 0.26 0.22 0.24 0.17 0.11 0.11 0.13 0.12 0.12 0.12 0.15 0.16 0.16
0.16 0.32 0.47 0.36 0.11 0.01 0.06 0.16 0.02 0.00 0.01 0.08 0.24 0.25 0.55 0.68 0.78 0.90 0.44 0.31 0.35 0.29 0.42 0.63 0.69 0.77 0.57 0.33 0.27 0.27 0.33 0.40 0.39 0.35 0.31 0.25 0.14 0.09 0.08 0.06 0.05 0.05 0.08 0.10
0.18 0.38 0.41 0.02 0.01 0.03 0.13 0.05 0.02 0.01 0.01 0.03 0.16 0.19 0.46 0.57 0.74 0.77 0.51 0.23 0.19 0.22 0.20 0.20 0.21 0.30 0.60 0.73 0.62 0.49 0.39 0.35 0.43 0.41 0.44 0.46 0.40 0.31 0.17 0.08 0.03 0.01 0.03 0.06
0.41 0.40 0.16 0.05 0.03 0.03 0.04 0.10 0.10 0.27 0.30 0.30 0.31 0.57 0.65 0.65 0.75 0.86 0.54 0.12 0.05 0.07 0.04 0.02 0.03 0.05 0.09 0.17 0.36 0.43 0.46 0.49 0.43 0.41 0.38 0.30 0.26 0.31 0.34 0.29 0.18 0.08 0.08 0.11
0.57 0.39 0.10 0.08 0.09 0.05 0.04 0.04 0.04 0.12 0.58 0.93 1.05 1.00 1.03 1.02 0.78 0.66 0.48 0.14 0.04 0.01 0.00 0.01 0.01 0.01 0.01 0.01 0.01 0.04 0.06 0.07 0.09 0.12 0.13 0.14 0.16 0.15 0.14 0.16 0.17 0.19 0.20 0.21
0.60 0.60 0.39 0.20 0.26 0.24 0.16 0.13 0.15 0.17 0.15 0.30 0.44 0.47 0.31 0.30 0.38 0.43 0.46 0.29 0.10 0.06 0.05 0.05 0.01 0.01 0.00 0.00 0.00 0.00 0.00 0.00 0.00 0.00 0.01 0.03 0.06 0.07 0.08 0.13 0.09 0.09 0.15 0.18
0.51 0.51 0.79 0.63 0.41 0.34 0.45 0.34 0.29 0.14 0.10 0.12 0.17 0.25 0.29 0.25 0.19 0.18 0.22 0.20 0.16 0.13 0.10 0.05 0.02 0.02 0.01 0.00 0.00 0.00 0.00 0.00 0.00 0.00 0.00 0.01 0.02 0.05 0.08 0.11 0.09 0.12 0.15 0.17
0.74 0.74 0.87 0.79 0.43 0.25 0.19 0.22 0.23 0.16 0.12 0.09 0.06 0.05 0.09 0.15 0.14 0.12 0.12 0.14 0.16 0.16 0.13 0.09 0.03 0.02 0.03 0.01 0.00 0.00 0.01 0.01 0.01 0.01 0.01 0.01 0.02 0.04 0.07 0.09 0.10 0.14 0.18 0.22
0.61 0.54 0.31 0.25 0.18 0.10 0.02 0.01 0.01 0.01 0.02 0.02 0.01 0.00 0.01 0.02 0.03 0.04 0.07 0.08 0.08 0.08 0.09 0.09 0.08 0.08 0.06 0.01 0.00 0.00 0.00 0.00 0.01 0.01 0.01 0.02 0.03 0.05 0.08 0.11 0.13 0.16 0.20 0.21
0.25 0.16 0.10 0.04 0.01 0.00 0.00 0.00 0.00 0.00 0.00 0.00 0.01 0.01 0.01 0.02 0.03 0.05 0.05 0.02 0.01 0.01 0.01 0.01 0.02 0.05 0.04 0.01 0.00 0.00 0.01 0.01 0.01 0.01 0.01 0.02 0.03 0.04 0.05 0.06 0.08 0.11 0.13 0.14
0.16 0.05 0.01 0.00 0.00 0.00 0.00 0.00 0.00 0.00 0.00 0.01 0.01 0.02 0.02 0.02 0.03 0.04 0.03 0.02 0.01 0.03 0.02 0.01 0.02 0.04 0.01 0.01 0.01 0.00 0.01 0.00 0.01 0.01 0.01 0.02 0.02 0.03 0.04 0.05 0.05 0.06 0.06 0.08
0.10 0.05 0.02 0.01 0.01 0.01 0.01 0.01 0.01 0.01 0.01 0.02 0.04 0.03 0.02 0.02 0.02 0.03 0.03 0.02 0.01 0.01 0.01 0.01 0.02 0.01 0.00 0.00 0.00 0.01 0.01 0.00 0.01 0.01 0.01 0.01 0.01 0.01 0.01 0.01 0.02 0.02 0.03 0.01
0.01 0.02 0.01 0.01 0.01 0.01 0.01 0.01 0.01 0.01 0.02 0.02 0.02 0.02 0.02 0.02 0.03 0.03 0.02 0.01 0.00 0.00 0.00 0.01 0.00 0.00 0.00 0.00 0.00 0.00 0.00 0.00 0.00 0.00 0.00 0.00 0.00 0.00 0.00 0.00 0.00 0.00 0.00 0.00
0.01 0.01 0.01 0.01 0.01 0.01 0.01 0.02 0.02 0.02 0.02 0.02 0.01 0.02 0.02 0.01 0.01 0.00 0.00 0.00 0.00 0.00 0.00 0.00 0.00 0.00 0.00 0.00 0.00 0.00 0.00 0.00 0.00 0.00 0.00 0.00 0.00 0.00 0.00 0.00 0.00 0.00 0.00 0.00
0.01 0.01 0.01 0.01 0.01 0.00 0.02 0.02 0.02 0.02 0.02 0.01 0.01 0.00 0.00 0.00 0.00 0.00 0.00 0.00 0.01 0.01 0.00 0.00 0.00 0.00 0.00 0.00 0.00 0.00 0.00 0.00 0.00 0.00 0.00 0.00 0.01 0.01 0.01 0.00 0.00 0.01 0.01 0.01
0.02 0.02 0.01 0.01 0.02 0.02 0.02 0.02 0.01 0.01 0.01 0.00 0.00 0.00 0.00 0.00 0.00 0.00 0.01 0.01 0.01 0.00 0.00 0.00 0.00 0.00 0.00 0.00 0.00 0.00 0.00 0.00 0.00 0.00 0.01 0.01 0.01 0.01 0.01 0.01 0.01 0.01 0.01 0.01
0.02 0.02 0.02 0.02 0.02 0.03 0.03 0.02 0.00 0.00 0.00 0.00 0.00 0.00 0.00 0.00 0.00 0.00 0.00 0.00 0.00 0.00 0.00 0.00 0.00 0.00 0.00 0.00 0.00 0.00 0.00 0.00 0.00 0.00 0.00 0.01 0.01 0.01 0.01 0.01 0.01 0.01 0.01 0.01
0.03 0.03 0.03 0.03 0.02 0.02 0.01 0.00 0.00 0.00 0.00 0.00 0.00 0.00 0.00 0.00 0.00 0.00 0.01 0.00 0.00 0.00 0.00 0.00 0.00 0.00 0.00 0.00 0.00 0.00 0.01 0.00 0.00 0.00 0.01 0.01 0.01 0.01 0.01 0.01 0.01 0.01 0.01 0.01
0.04 0.04 0.03 0.01 0.01 0.00 0.00 0.00 0.00 0.00 0.00 0.00 0.00 0.00 0.00 0.00 0.01 0.00 0.00 0.00 0.00 0.00 0.00 0.00 0.00 0.00 0.00 0.01 0.00 0.00 0.00 0.01 0.01 0.01 0.01 0.00 0.01 0.01 0.01 0.01 0.00 0.01 0.01 0.01
0.04 0.03 0.02 0.00 0.01 0.00 0.00 0.00 0.00 0.00 0.00 0.00 0.00 0.00 0.00 0.00 0.00 0.01 0.00 0.01 0.00 0.00 0.02 0.00 0.00 0.00 0.01 0.01 0.01 0.01 0.01 0.01 0.01 0.00 0.01 0.01 0.01 0.01 0.01 0.01 0.01 0.01 0.00 0.01
0.02 0.02 0.01 0.01 0.01 0.00 0.00 0.00 0.01 0.02 0.01 0.01 0.02 0.01 0.01 0.00 0.00 0.00 0.01 0.01 0.00 0.01 0.01 0.02 0.01 0.01 0.01 0.01 0.01 0.01 0.01 0.01 0.01 0.01 0.01 0.01 0.01 0.01 0.01 0.01 0.01 0.01 0.01 0.01
0.01 0.00 0.00 0.00 0.00 0.00 0.00 0.02 0.02 0.03 0.04 0.03 0.03 0.05 0.02 0.01 0.01 0.01 0.01 0.01 0.01 0.02 0.02 0.02 0.02 0.02 0.01 0.01 0.01 0.01 0.01 0.01 0.01 0.01 0.01 0.01 0.01 0.02 0.01 0.01 0.01 0.01 0.01 0.01